Wetterdaten: Montag, 27.11.2017
Datum Zeit Temp. Aussen Temp. o. S. +5cm Feuchte Auss BlattFeu 1 Luftdruck Regen Sonnenschein Regendauer Solar Windben Empfang
27.11.2017 00:00 4,0 C 3,3 C 1,7 C 91 % 15 lf 1022,2 hPa 0,2 l/m 0 min 2 min 0 W/m 20,3 km/h (4 Bft) 97,87 %
27.11.2017 00:02 4,0 C 2,8 C 1,7 C 91 % 15 lf 1022,2 hPa 0,0 l/m 0 min 2 min 0 W/m 20,3 km/h (4 Bft) 95,00 %
27.11.2017 00:04 4,0 C 2,8 C 1,7 C 91 % 15 lf 1022,2 hPa 0,0 l/m 0 min 2 min 0 W/m 13,5 km/h (3 Bft) 100,00 %
27.11.2017 00:08 4,0 C 2,8 C 1,7 C 91 % 15 lf 1022,1 hPa 0,0 l/m 0 min 0 min 0 W/m 18,0 km/h (3 Bft) 100,00 %
27.11.2017 00:10 3,9 C 2,8 C 1,7 C 91 % 15 lf 1022,2 hPa 0,0 l/m 0 min 0 min 0 W/m 13,5 km/h (3 Bft) 100,00 %
27.11.2017 00:12 3,9 C 2,8 C 1,7 C 91 % 15 lf 1022,2 hPa 0,0 l/m 0 min 0 min 0 W/m 13,5 km/h (3 Bft) 95,74 %
27.11.2017 00:14 3,9 C 2,8 C 1,7 C 91 % 15 lf 1022,2 hPa 0,0 l/m 0 min 0 min 0 W/m 15,8 km/h (3 Bft) 100,00 %
27.11.2017 00:16 3,9 C 2,8 C 1,7 C 91 % 15 lf 1022,2 hPa 0,0 l/m 0 min 0 min 0 W/m 18,0 km/h (3 Bft) 97,87 %
27.11.2017 00:18 3,8 C 2,8 C 1,7 C 91 % 15 lf 1022,2 hPa 0,0 l/m 0 min 0 min 0 W/m 18,0 km/h (3 Bft) 100,00 %
27.11.2017 00:20 3,8 C 2,8 C 1,7 C 91 % 15 lf 1022,2 hPa 0,0 l/m 0 min 0 min 0 W/m 13,5 km/h (3 Bft) 96,61 %
27.11.2017 00:22 3,8 C 2,8 C 1,7 C 92 % 15 lf 1022,2 hPa 0,0 l/m 0 min 0 min 0 W/m 9,0 km/h (2 Bft) 100,00 %
27.11.2017 00:24 3,8 C 2,8 C 1,7 C 91 % 15 lf 1022,1 hPa 0,0 l/m 0 min 0 min 0 W/m 20,3 km/h (4 Bft) 95,74 %
27.11.2017 00:26 3,7 C 2,8 C 1,7 C 91 % 15 lf 1022,1 hPa 0,0 l/m 0 min 0 min 0 W/m 18,0 km/h (3 Bft) 95,74 %
27.11.2017 00:28 3,7 C 2,8 C 1,7 C 92 % 15 lf 1022,2 hPa 0,0 l/m 0 min 0 min 0 W/m 20,3 km/h (4 Bft) 95,65 %
27.11.2017 00:30 3,7 C 2,8 C 1,7 C 92 % 15 lf 1022,1 hPa 0,0 l/m 0 min 0 min 0 W/m 15,8 km/h (3 Bft) 97,87 %
27.11.2017 00:32 3,7 C 2,8 C 1,7 C 92 % 15 lf 1022,1 hPa 0,0 l/m 0 min 0 min 0 W/m 15,8 km/h (3 Bft) 95,74 %
27.11.2017 00:34 3,6 C 2,8 C 1,7 C 92 % 15 lf 1022,1 hPa 0,0 l/m 0 min 0 min 0 W/m 24,8 km/h (4 Bft) 97,87 %
27.11.2017 00:36 3,6 C 2,8 C 1,7 C 92 % 15 lf 1022,1 hPa 0,0 l/m 0 min 0 min 0 W/m 20,3 km/h (4 Bft) 95,74 %
27.11.2017 00:38 3,6 C 2,8 C 1,7 C 92 % 15 lf 1022,1 hPa 0,0 l/m 0 min 0 min 0 W/m 13,5 km/h (3 Bft) 91,49 %
27.11.2017 00:40 3,6 C 2,8 C 1,7 C 92 % 15 lf 1022,1 hPa 0,0 l/m 0 min 0 min 0 W/m 22,5 km/h (4 Bft) 95,65 %
27.11.2017 00:42 3,6 C 2,8 C 1,7 C 92 % 15 lf 1022,1 hPa 0,0 l/m 0 min 0 min 0 W/m 24,8 km/h (4 Bft) 95,74 %
27.11.2017 00:44 3,6 C 2,8 C 1,7 C 92 % 15 lf 1022,0 hPa 0,0 l/m 0 min 0 min 0 W/m 20,3 km/h (4 Bft) 95,74 %
27.11.2017 00:46 3,5 C 2,8 C 1,7 C 92 % 15 lf 1022,0 hPa 0,0 l/m 0 min 0 min 0 W/m 22,5 km/h (4 Bft) 97,87 %
27.11.2017 00:48 3,5 C 2,8 C 1,7 C 92 % 15 lf 1021,9 hPa 0,0 l/m 0 min 0 min 0 W/m 24,8 km/h (4 Bft) 95,74 %
27.11.2017 00:50 3,5 C 2,8 C 1,7 C 92 % 15 lf 1021,9 hPa 0,0 l/m 0 min 0 min 0 W/m 18,0 km/h (3 Bft) 96,55 %
27.11.2017 00:52 3,5 C 2,8 C 1,7 C 92 % 15 lf 1021,9 hPa 0,0 l/m 0 min 0 min 0 W/m 18,0 km/h (3 Bft) 97,14 %
27.11.2017 00:54 3,5 C 2,8 C 1,7 C 92 % 15 lf 1021,9 hPa 0,0 l/m 0 min 0 min 0 W/m 13,5 km/h (3 Bft) 97,87 %
27.11.2017 00:56 3,5 C 2,8 C 1,7 C 92 % 15 lf 1021,9 hPa 0,0 l/m 0 min 0 min 0 W/m 20,3 km/h (4 Bft) 97,87 %
27.11.2017 00:58 3,5 C 2,8 C 1,7 C 92 % 15 lf 1021,9 hPa 0,0 l/m 0 min 0 min 0 W/m 22,5 km/h (4 Bft) 97,87 %
27.11.2017 01:00 3,5 C 2,8 C 1,7 C 92 % 15 lf 1021,9 hPa 0,0 l/m 0 min 0 min 0 W/m 22,5 km/h (4 Bft) 95,74 %
27.11.2017 01:02 3,5 C 2,8 C 2,2 C 92 % 15 lf 1021,8 hPa 0,0 l/m 0 min 0 min 0 W/m 22,5 km/h (4 Bft) 95,74 %
27.11.2017 01:04 3,5 C 2,8 C 2,2 C 92 % 15 lf 1021,9 hPa 0,0 l/m 0 min 0 min 0 W/m 22,5 km/h (4 Bft) 97,83 %
27.11.2017 01:06 3,5 C 2,8 C 2,2 C 92 % 15 lf 1021,9 hPa 0,0 l/m 0 min 0 min 0 W/m 22,5 km/h (4 Bft) 93,62 %
27.11.2017 01:08 3,5 C 2,8 C 2,2 C 92 % 15 lf 1022,0 hPa 0,0 l/m 0 min 0 min 0 W/m 27,0 km/h (4 Bft) 93,62 %
27.11.2017 01:10 3,6 C 3,3 C 2,2 C 92 % 15 lf 1021,9 hPa 0,0 l/m 0 min 0 min 0 W/m 22,5 km/h (4 Bft) 95,74 %
27.11.2017 01:12 3,6 C 3,3 C 2,2 C 92 % 15 lf 1021,9 hPa 0,0 l/m 0 min 0 min 0 W/m 24,8 km/h (4 Bft) 93,62 %
27.11.2017 01:14 3,6 C 3,3 C 2,2 C 92 % 15 lf 1021,8 hPa 0,0 l/m 0 min 0 min 0 W/m 29,3 km/h (5 Bft) 93,62 %
27.11.2017 01:16 3,6 C 3,3 C 2,2 C 92 % 15 lf 1021,8 hPa 0,0 l/m 0 min 0 min 0 W/m 24,8 km/h (4 Bft) 93,48 %
27.11.2017 01:18 3,6 C 2,8 C 2,2 C 92 % 15 lf 1021,8 hPa 0,0 l/m 0 min 0 min 0 W/m 29,3 km/h (5 Bft) 91,49 %
27.11.2017 01:20 3,6 C 3,3 C 2,2 C 92 % 15 lf 1021,6 hPa 0,0 l/m 0 min 0 min 0 W/m 29,3 km/h (5 Bft) 91,53 %
27.11.2017 01:22 3,6 C 3,3 C 2,2 C 93 % 15 lf 1021,6 hPa 0,0 l/m 0 min 0 min 0 W/m 20,3 km/h (4 Bft) 94,29 %
27.11.2017 01:24 3,6 C 3,3 C 2,2 C 92 % 15 lf 1021,6 hPa 0,0 l/m 0 min 0 min 0 W/m 27,0 km/h (4 Bft) 95,74 %
27.11.2017 01:26 3,6 C 3,3 C 2,2 C 92 % 15 lf 1021,7 hPa 0,0 l/m 0 min 0 min 0 W/m 24,8 km/h (4 Bft) 93,62 %
27.11.2017 01:28 3,6 C 3,3 C 2,2 C 92 % 15 lf 1021,6 hPa 0,0 l/m 0 min 0 min 0 W/m 22,5 km/h (4 Bft) 95,65 %
27.11.2017 01:30 3,6 C 3,3 C 2,2 C 92 % 15 lf 1021,6 hPa 0,0 l/m 0 min 0 min 0 W/m 24,8 km/h (4 Bft) 95,74 %
27.11.2017 01:32 3,6 C 3,3 C 2,2 C 92 % 15 lf 1021,6 hPa 0,0 l/m 0 min 0 min 0 W/m 27,0 km/h (4 Bft) 91,49 %
27.11.2017 01:34 3,6 C 3,3 C 2,2 C 92 % 14 lf 1021,6 hPa 0,0 l/m 0 min 0 min 0 W/m 22,5 km/h (4 Bft) 93,62 %
27.11.2017 01:36 3,6 C 3,3 C 2,2 C 92 % 14 lf 1021,5 hPa 0,0 l/m 0 min 0 min 0 W/m 27,0 km/h (4 Bft) 95,74 %
27.11.2017 01:38 3,6 C 3,3 C 2,2 C 92 % 13 lf 1021,5 hPa 0,0 l/m 0 min 0 min 0 W/m 20,3 km/h (4 Bft) 93,62 %
27.11.2017 01:40 3,7 C 3,3 C 2,2 C 92 % 12 lf 1021,5 hPa 0,0 l/m 0 min 0 min 0 W/m 27,0 km/h (4 Bft) 91,30 %
27.11.2017 01:42 3,7 C 3,3 C 2,2 C 92 % 11 lf 1021,5 hPa 0,0 l/m 0 min 0 min 0 W/m 22,5 km/h (4 Bft) 95,74 %
27.11.2017 01:44 3,7 C 3,3 C 2,2 C 92 % 9 lf 1021,5 hPa 0,0 l/m 0 min 0 min 0 W/m 31,5 km/h (5 Bft) 95,74 %
27.11.2017 01:46 3,7 C 3,3 C 2,2 C 92 % 5 lf 1021,5 hPa 0,0 l/m 0 min 0 min 0 W/m 24,8 km/h (4 Bft) 95,74 %
27.11.2017 01:48 3,7 C 3,3 C 2,2 C 92 % 4 lf 1021,4 hPa 0,0 l/m 0 min 0 min 0 W/m 31,5 km/h (5 Bft) 93,62 %
27.11.2017 01:50 3,7 C 3,3 C 2,2 C 92 % 3 lf 1021,4 hPa 0,0 l/m 0 min 0 min 0 W/m 33,8 km/h (5 Bft) 94,83 %
27.11.2017 01:52 3,7 C 3,3 C 2,2 C 92 % 2 lf 1021,4 hPa 0,0 l/m 0 min 0 min 0 W/m 27,0 km/h (4 Bft) 94,29 %
27.11.2017 01:54 3,7 C 3,3 C 2,2 C 92 % 1 lf 1021,4 hPa 0,0 l/m 0 min 0 min 0 W/m 22,5 km/h (4 Bft) 89,36 %
27.11.2017 01:56 3,7 C 3,3 C 2,2 C 92 % 0 lf 1021,4 hPa 0,0 l/m 0 min 0 min 0 W/m 20,3 km/h (4 Bft) 95,74 %
27.11.2017 01:58 3,7 C 3,3 C 2,2 C 92 % 0 lf 1021,4 hPa 0,0 l/m 0 min 0 min 0 W/m 33,8 km/h (5 Bft) 95,74 %
27.11.2017 02:00 3,7 C 3,3 C 1,7 C 92 % 0 lf 1021,4 hPa 0,0 l/m 0 min 0 min 0 W/m 29,3 km/h (5 Bft) 91,49 %
27.11.2017 02:02 3,7 C 3,3 C 1,7 C 92 % 0 lf 1021,4 hPa 0,0 l/m 0 min 0 min 0 W/m 31,5 km/h (5 Bft) 95,65 %
27.11.2017 02:04 3,7 C 3,3 C 1,7 C 92 % 0 lf 1021,4 hPa 0,0 l/m 0 min 0 min 0 W/m 36,0 km/h (5 Bft) 95,74 %
27.11.2017 02:06 3,7 C 3,3 C 1,7 C 92 % 0 lf 1021,4 hPa 0,0 l/m 0 min 0 min 0 W/m 33,8 km/h (5 Bft) 91,49 %
27.11.2017 02:08 3,7 C 3,3 C 1,7 C 92 % 0 lf 1021,5 hPa 0,0 l/m 0 min 0 min 0 W/m 27,0 km/h (4 Bft) 93,62 %
27.11.2017 02:10 3,6 C 3,3 C 1,7 C 92 % 0 lf 1021,5 hPa 0,0 l/m 0 min 0 min 0 W/m 31,5 km/h (5 Bft) 95,74 %
27.11.2017 02:12 3,6 C 3,3 C 1,7 C 92 % 0 lf 1021,5 hPa 0,0 l/m 0 min 0 min 0 W/m 27,0 km/h (4 Bft) 89,36 %
27.11.2017 02:14 3,6 C 3,3 C 1,7 C 92 % 0 lf 1021,5 hPa 0,0 l/m 0 min 0 min 0 W/m 29,3 km/h (5 Bft) 93,48 %
27.11.2017 02:16 3,6 C 3,3 C 2,2 C 92 % 0 lf 1021,5 hPa 0,0 l/m 0 min 0 min 0 W/m 29,3 km/h (5 Bft) 95,74 %
27.11.2017 02:18 3,6 C 3,3 C 2,2 C 92 % 0 lf 1021,5 hPa 0,0 l/m 0 min 0 min 0 W/m 27,0 km/h (4 Bft) 97,87 %
27.11.2017 02:20 3,6 C 3,3 C 2,2 C 92 % 0 lf 1021,4 hPa 0,0 l/m 0 min 0 min 0 W/m 18,0 km/h (3 Bft) 97,87 %
27.11.2017 02:22 3,6 C 3,3 C 2,2 C 92 % 0 lf 1021,4 hPa 0,0 l/m 0 min 0 min 0 W/m 20,3 km/h (4 Bft) 91,49 %
27.11.2017 02:24 3,6 C 3,3 C 2,2 C 92 % 0 lf 1021,4 hPa 0,0 l/m 0 min 0 min 0 W/m 24,8 km/h (4 Bft) 95,74 %
27.11.2017 02:26 3,6 C 3,3 C 2,2 C 92 % 0 lf 1021,5 hPa 0,0 l/m 0 min 0 min 0 W/m 20,3 km/h (4 Bft) 97,83 %
27.11.2017 02:28 3,6 C 3,3 C 2,2 C 92 % 0 lf 1021,4 hPa 0,0 l/m 0 min 0 min 0 W/m 27,0 km/h (4 Bft) 97,87 %
27.11.2017 02:30 3,6 C 3,3 C 2,2 C 92 % 0 lf 1021,4 hPa 0,0 l/m 0 min 0 min 0 W/m 22,5 km/h (4 Bft) 95,74 %
27.11.2017 02:32 3,6 C 3,3 C 2,2 C 92 % 2 lf 1021,5 hPa 0,0 l/m 0 min 2 min 0 W/m 22,5 km/h (4 Bft) 95,74 %
27.11.2017 02:34 3,7 C 3,3 C 2,2 C 92 % 7 lf 1021,5 hPa 0,0 l/m 0 min 2 min 0 W/m 20,3 km/h (4 Bft) 95,74 %
27.11.2017 02:36 3,7 C 3,3 C 2,2 C 92 % 7 lf 1021,4 hPa 0,0 l/m 0 min 2 min 0 W/m 20,3 km/h (4 Bft) 97,87 %
27.11.2017 02:38 3,7 C 3,3 C 2,2 C 92 % 11 lf 1021,4 hPa 0,0 l/m 0 min 2 min 0 W/m 24,8 km/h (4 Bft) 95,65 %
27.11.2017 02:40 3,7 C 3,3 C 2,2 C 92 % 10 lf 1021,5 hPa 0,0 l/m 0 min 2 min 0 W/m 20,3 km/h (4 Bft) 97,87 %
27.11.2017 02:42 3,7 C 3,3 C 2,2 C 92 % 10 lf 1021,4 hPa 0,0 l/m 0 min 2 min 0 W/m 24,8 km/h (4 Bft) 100,00 %
27.11.2017 02:44 3,7 C 3,3 C 2,2 C 92 % 9 lf 1021,4 hPa 0,0 l/m 0 min 0 min 0 W/m 27,0 km/h (4 Bft) 100,00 %
27.11.2017 02:46 3,7 C 3,3 C 1,7 C 92 % 9 lf 1021,5 hPa 0,0 l/m 0 min 2 min 0 W/m 18,0 km/h (3 Bft) 95,74 %
27.11.2017 02:48 3,7 C 3,3 C 1,7 C 92 % 7 lf 1021,4 hPa 0,0 l/m 0 min 0 min 0 W/m 22,5 km/h (4 Bft) 100,00 %
27.11.2017 02:50 3,7 C 3,3 C 2,2 C 92 % 5 lf 1021,4 hPa 0,0 l/m 0 min 0 min 0 W/m 20,3 km/h (4 Bft) 97,83 %
27.11.2017 02:52 3,7 C 3,3 C 2,2 C 92 % 4 lf 1021,4 hPa 0,0 l/m 0 min 2 min 0 W/m 22,5 km/h (4 Bft) 100,00 %
27.11.2017 02:54 3,7 C 3,3 C 2,2 C 92 % 4 lf 1021,4 hPa 0,0 l/m 0 min 0 min 0 W/m 18,0 km/h (3 Bft) 95,74 %
27.11.2017 02:56 3,7 C 3,3 C 2,2 C 92 % 3 lf 1021,3 hPa 0,0 l/m 0 min 0 min 0 W/m 18,0 km/h (3 Bft) 100,00 %
27.11.2017 02:58 3,7 C 3,3 C 2,2 C 92 % 3 lf 1021,3 hPa 0,0 l/m 0 min 2 min 0 W/m 22,5 km/h (4 Bft) 95,74 %
27.11.2017 03:00 3,7 C 3,3 C 2,2 C 92 % 2 lf 1021,3 hPa 0,0 l/m 0 min 2 min 0 W/m 22,5 km/h (4 Bft) 100,00 %
27.11.2017 03:02 3,7 C 3,3 C 2,2 C 92 % 1 lf 1021,3 hPa 0,0 l/m 0 min 0 min 0 W/m 18,0 km/h (3 Bft) 97,87 %
27.11.2017 03:04 3,7 C 3,3 C 2,2 C 92 % 0 lf 1021,3 hPa 0,0 l/m 0 min 0 min 0 W/m 24,8 km/h (4 Bft) 97,87 %
27.11.2017 03:06 3,7 C 3,3 C 2,2 C 92 % 0 lf 1021,2 hPa 0,0 l/m 0 min 0 min 0 W/m 29,3 km/h (5 Bft) 95,74 %
27.11.2017 03:08 3,7 C 3,3 C 2,2 C 92 % 0 lf 1021,2 hPa 0,0 l/m 0 min 2 min 0 W/m 22,5 km/h (4 Bft) 95,74 %
27.11.2017 03:10 3,7 C 3,3 C 2,2 C 92 % 0 lf 1021,3 hPa 0,0 l/m 0 min 0 min 0 W/m 18,0 km/h (3 Bft) 97,87 %
27.11.2017 03:12 3,7 C 3,9 C 2,2 C 92 % 0 lf 1021,1 hPa 0,0 l/m 0 min 0 min 0 W/m 20,3 km/h (4 Bft) 97,83 %
27.11.2017 03:14 3,7 C 3,3 C 2,2 C 92 % 0 lf 1021,2 hPa 0,0 l/m 0 min 0 min 0 W/m 20,3 km/h (4 Bft) 97,87 %
27.11.2017 03:16 3,7 C 3,9 C 2,2 C 92 % 0 lf 1021,2 hPa 0,0 l/m 0 min 0 min 0 W/m 20,3 km/h (4 Bft) 97,87 %
27.11.2017 03:18 3,7 C 3,9 C 2,2 C 92 % 0 lf 1021,2 hPa 0,0 l/m 0 min 0 min 0 W/m 20,3 km/h (4 Bft) 97,87 %
27.11.2017 03:20 3,7 C 3,9 C 2,2 C 92 % 0 lf 1021,2 hPa 0,0 l/m 0 min 0 min 0 W/m 29,3 km/h (5 Bft) 95,74 %
27.11.2017 03:22 3,8 C 3,9 C 2,2 C 92 % 0 lf 1021,1 hPa 0,0 l/m 0 min 0 min 0 W/m 22,5 km/h (4 Bft) 97,87 %
27.11.2017 03:24 3,8 C 3,9 C 2,2 C 92 % 0 lf 1021,0 hPa 0,0 l/m 0 min 0 min 0 W/m 27,0 km/h (4 Bft) 97,83 %
27.11.2017 03:26 3,8 C 3,9 C 2,2 C 92 % 0 lf 1021,1 hPa 0,0 l/m 0 min 0 min 0 W/m 24,8 km/h (4 Bft) 95,74 %
27.11.2017 03:28 3,8 C 3,9 C 2,2 C 92 % 0 lf 1021,0 hPa 0,0 l/m 0 min 0 min 0 W/m 22,5 km/h (4 Bft) 97,87 %
27.11.2017 03:30 3,8 C 3,9 C 2,2 C 92 % 0 lf 1021,0 hPa 0,0 l/m 0 min 2 min 0 W/m 31,5 km/h (5 Bft) 97,87 %
27.11.2017 03:32 3,8 C 3,9 C 2,2 C 92 % 0 lf 1021,0 hPa 0,0 l/m 0 min 0 min 0 W/m 29,3 km/h (5 Bft) 97,87 %
27.11.2017 03:34 3,8 C 3,9 C 2,2 C 91 % 0 lf 1020,9 hPa 0,0 l/m 0 min 0 min 0 W/m 27,0 km/h (4 Bft) 93,62 %
27.11.2017 03:36 3,8 C 3,9 C 2,2 C 91 % 0 lf 1020,9 hPa 0,0 l/m 0 min 0 min 0 W/m 22,5 km/h (4 Bft) 97,83 %
27.11.2017 03:38 3,8 C 3,9 C 2,2 C 91 % 0 lf 1020,9 hPa 0,0 l/m 0 min 0 min 0 W/m 31,5 km/h (5 Bft) 95,74 %
27.11.2017 03:40 3,9 C 3,9 C 2,2 C 91 % 0 lf 1020,9 hPa 0,0 l/m 0 min 2 min 0 W/m 24,8 km/h (4 Bft) 97,87 %
27.11.2017 03:42 3,8 C 3,9 C 2,2 C 91 % 0 lf 1020,9 hPa 0,0 l/m 0 min 0 min 0 W/m 29,3 km/h (5 Bft) 97,87 %
27.11.2017 03:44 3,9 C 3,9 C 2,2 C 91 % 0 lf 1020,8 hPa 0,0 l/m 0 min 0 min 0 W/m 20,3 km/h (4 Bft) 97,87 %
27.11.2017 03:46 3,9 C 3,9 C 2,2 C 91 % 0 lf 1020,8 hPa 0,0 l/m 0 min 0 min 0 W/m 22,5 km/h (4 Bft) 95,74 %
27.11.2017 03:48 3,9 C 3,9 C 2,2 C 91 % 0 lf 1020,8 hPa 0,0 l/m 0 min 0 min 0 W/m 27,0 km/h (4 Bft) 97,83 %
27.11.2017 03:50 3,9 C 3,9 C 2,2 C 91 % 0 lf 1020,8 hPa 0,0 l/m 0 min 0 min 0 W/m 36,0 km/h (5 Bft) 97,87 %
27.11.2017 03:52 3,9 C 3,9 C 2,2 C 91 % 0 lf 1020,8 hPa 0,0 l/m 0 min 0 min 0 W/m 22,5 km/h (4 Bft) 100,00 %
27.11.2017 03:54 3,9 C 3,9 C 1,7 C 91 % 0 lf 1020,8 hPa 0,0 l/m 0 min 0 min 0 W/m 27,0 km/h (4 Bft) 97,87 %
27.11.2017 03:56 3,9 C 3,9 C 1,7 C 91 % 0 lf 1020,7 hPa 0,0 l/m 0 min 0 min 0 W/m 18,0 km/h (3 Bft) 95,74 %
27.11.2017 03:58 3,8 C 3,9 C 1,7 C 90 % 0 lf 1020,7 hPa 0,0 l/m 0 min 0 min 0 W/m 29,3 km/h (5 Bft) 100,00 %
27.11.2017 04:00 3,8 C 3,3 C 1,7 C 90 % 0 lf 1020,7 hPa 0,0 l/m 0 min 0 min 0 W/m 22,5 km/h (4 Bft) 95,74 %
27.11.2017 04:02 3,8 C 3,3 C 1,7 C 90 % 0 lf 1020,7 hPa 0,0 l/m 0 min 0 min 0 W/m 22,5 km/h (4 Bft) 92,31 %
27.11.2017 04:04 3,8 C 3,3 C 1,7 C 90 % 0 lf 1020,7 hPa 0,0 l/m 0 min 0 min 0 W/m 20,3 km/h (4 Bft) 93,62 %
27.11.2017 04:06 3,8 C 3,3 C 1,7 C 90 % 0 lf 1020,7 hPa 0,0 l/m 0 min 0 min 0 W/m 22,5 km/h (4 Bft) 97,87 %
27.11.2017 04:08 3,8 C 3,3 C 1,7 C 90 % 0 lf 1020,6 hPa 0,0 l/m 0 min 0 min 0 W/m 20,3 km/h (4 Bft) 97,87 %
27.11.2017 04:10 3,8 C 3,3 C 1,7 C 90 % 0 lf 1020,6 hPa 0,0 l/m 0 min 2 min 0 W/m 22,5 km/h (4 Bft) 97,83 %
27.11.2017 04:12 3,8 C 3,3 C 1,7 C 90 % 0 lf 1020,5 hPa 0,0 l/m 0 min 2 min 0 W/m 18,0 km/h (3 Bft) 95,74 %
27.11.2017 04:14 3,7 C 3,3 C 1,7 C 90 % 0 lf 1020,6 hPa 0,0 l/m 0 min 0 min 0 W/m 20,3 km/h (4 Bft) 95,74 %
27.11.2017 04:16 3,7 C 3,3 C 1,7 C 90 % 0 lf 1020,6 hPa 0,0 l/m 0 min 0 min 0 W/m 20,3 km/h (4 Bft) 93,62 %
27.11.2017 04:18 3,7 C 3,3 C 1,7 C 90 % 0 lf 1020,5 hPa 0,0 l/m 0 min 0 min 0 W/m 20,3 km/h (4 Bft) 95,74 %
27.11.2017 04:20 3,7 C 3,3 C 1,7 C 90 % 0 lf 1020,5 hPa 0,0 l/m 0 min 0 min 0 W/m 18,0 km/h (3 Bft) 95,74 %
27.11.2017 04:22 3,7 C 3,3 C 1,7 C 90 % 0 lf 1020,5 hPa 0,0 l/m 0 min 0 min 0 W/m 24,8 km/h (4 Bft) 95,65 %
27.11.2017 04:24 3,7 C 3,3 C 1,7 C 90 % 0 lf 1020,5 hPa 0,0 l/m 0 min 0 min 0 W/m 22,5 km/h (4 Bft) 95,74 %
27.11.2017 04:26 3,7 C 3,3 C 1,7 C 90 % 0 lf 1020,4 hPa 0,0 l/m 0 min 0 min 0 W/m 27,0 km/h (4 Bft) 95,74 %
27.11.2017 04:28 3,7 C 3,3 C 1,7 C 90 % 0 lf 1020,4 hPa 0,0 l/m 0 min 0 min 0 W/m 27,0 km/h (4 Bft) 91,49 %
27.11.2017 04:30 3,6 C 3,3 C 1,7 C 90 % 0 lf 1020,4 hPa 0,0 l/m 0 min 0 min 0 W/m 20,3 km/h (4 Bft) 95,74 %
27.11.2017 04:32 3,6 C 3,3 C 1,7 C 90 % 0 lf 1020,4 hPa 0,0 l/m 0 min 0 min 0 W/m 22,5 km/h (4 Bft) 95,74 %
27.11.2017 04:34 3,6 C 3,3 C 1,7 C 90 % 0 lf 1020,3 hPa 0,0 l/m 0 min 0 min 0 W/m 22,5 km/h (4 Bft) 97,83 %
27.11.2017 04:36 3,6 C 3,3 C 1,7 C 90 % 0 lf 1020,2 hPa 0,0 l/m 0 min 0 min 0 W/m 22,5 km/h (4 Bft) 93,62 %
27.11.2017 04:38 3,6 C 3,3 C 1,7 C 90 % 0 lf 1020,2 hPa 0,0 l/m 0 min 0 min 0 W/m 27,0 km/h (4 Bft) 95,74 %
27.11.2017 04:40 3,6 C 3,3 C 1,7 C 90 % 0 lf 1020,3 hPa 0,0 l/m 0 min 0 min 0 W/m 29,3 km/h (5 Bft) 95,74 %
27.11.2017 04:42 3,6 C 3,3 C 1,7 C 90 % 0 lf 1020,2 hPa 0,0 l/m 0 min 0 min 0 W/m 22,5 km/h (4 Bft) 95,74 %
27.11.2017 04:44 3,6 C 3,3 C 1,7 C 90 % 0 lf 1020,2 hPa 0,0 l/m 0 min 0 min 0 W/m 18,0 km/h (3 Bft) 93,62 %
27.11.2017 04:46 3,6 C 3,3 C 1,7 C 90 % 0 lf 1020,3 hPa 0,0 l/m 0 min 0 min 0 W/m 22,5 km/h (4 Bft) 95,65 %
27.11.2017 04:48 3,6 C 3,3 C 1,7 C 90 % 0 lf 1020,1 hPa 0,0 l/m 0 min 0 min 0 W/m 22,5 km/h (4 Bft) 97,87 %
27.11.2017 04:50 3,6 C 3,3 C 1,7 C 90 % 0 lf 1020,2 hPa 0,0 l/m 0 min 0 min 0 W/m 31,5 km/h (5 Bft) 98,31 %
27.11.2017 04:52 3,5 C 3,3 C 1,7 C 90 % 0 lf 1020,2 hPa 0,0 l/m 0 min 0 min 0 W/m 22,5 km/h (4 Bft) 94,29 %
27.11.2017 04:54 3,5 C 3,3 C 1,7 C 90 % 0 lf 1020,1 hPa 0,0 l/m 0 min 0 min 0 W/m 18,0 km/h (3 Bft) 97,87 %
27.11.2017 04:56 3,5 C 3,3 C 1,7 C 90 % 0 lf 1020,2 hPa 0,0 l/m 0 min 0 min 0 W/m 22,5 km/h (4 Bft) 97,87 %
27.11.2017 04:58 3,5 C 3,3 C 1,7 C 90 % 0 lf 1020,1 hPa 0,0 l/m 0 min 0 min 0 W/m 20,3 km/h (4 Bft) 97,83 %
27.11.2017 05:00 3,5 C 3,3 C 1,7 C 90 % 0 lf 1020,1 hPa 0,0 l/m 0 min 0 min 0 W/m 20,3 km/h (4 Bft) 97,87 %
27.11.2017 05:02 3,5 C 3,3 C 1,7 C 90 % 0 lf 1020,0 hPa 0,0 l/m 0 min 0 min 0 W/m 15,8 km/h (3 Bft) 97,87 %
27.11.2017 05:04 3,4 C 3,3 C 1,7 C 90 % 0 lf 1020,0 hPa 0,0 l/m 0 min 0 min 0 W/m 24,8 km/h (4 Bft) 100,00 %
27.11.2017 05:06 3,5 C 3,3 C 1,7 C 90 % 0 lf 1020,0 hPa 0,0 l/m 0 min 0 min 0 W/m 24,8 km/h (4 Bft) 97,87 %
27.11.2017 05:08 3,4 C 3,3 C 1,7 C 90 % 0 lf 1019,9 hPa 0,0 l/m 0 min 0 min 0 W/m 15,8 km/h (3 Bft) 97,83 %
27.11.2017 05:10 3,4 C 3,3 C 1,7 C 90 % 0 lf 1019,8 hPa 0,0 l/m 0 min 0 min 0 W/m 27,0 km/h (4 Bft) 100,00 %
27.11.2017 05:12 3,4 C 3,3 C 1,7 C 90 % 0 lf 1019,7 hPa 0,0 l/m 0 min 0 min 0 W/m 29,3 km/h (5 Bft) 97,87 %
27.11.2017 05:14 3,4 C 3,3 C 1,7 C 90 % 0 lf 1019,7 hPa 0,0 l/m 0 min 0 min 0 W/m 22,5 km/h (4 Bft) 100,00 %
27.11.2017 05:16 3,4 C 3,3 C 1,7 C 90 % 0 lf 1019,7 hPa 0,0 l/m 0 min 0 min 0 W/m 24,8 km/h (4 Bft) 100,00 %
27.11.2017 05:18 3,4 C 3,3 C 1,7 C 90 % 0 lf 1019,7 hPa 0,0 l/m 0 min 0 min 0 W/m 20,3 km/h (4 Bft) 97,87 %
27.11.2017 05:20 3,4 C 3,3 C 1,7 C 91 % 0 lf 1019,6 hPa 0,0 l/m 0 min 0 min 0 W/m 29,3 km/h (5 Bft) 96,55 %
27.11.2017 05:22 3,4 C 3,3 C 1,7 C 91 % 0 lf 1019,6 hPa 0,0 l/m 0 min 0 min 0 W/m 24,8 km/h (4 Bft) 97,14 %
27.11.2017 05:24 3,5 C 3,3 C 1,7 C 91 % 0 lf 1019,5 hPa 0,0 l/m 0 min 0 min 0 W/m 18,0 km/h (3 Bft) 93,62 %
27.11.2017 05:26 3,5 C 3,3 C 1,7 C 91 % 0 lf 1019,5 hPa 0,0 l/m 0 min 0 min 0 W/m 33,8 km/h (5 Bft) 97,87 %
27.11.2017 05:28 3,5 C 3,3 C 1,7 C 91 % 0 lf 1019,4 hPa 0,0 l/m 0 min 0 min 0 W/m 22,5 km/h (4 Bft) 97,87 %
27.11.2017 05:30 3,4 C 3,3 C 1,7 C 91 % 0 lf 1019,4 hPa 0,0 l/m 0 min 0 min 0 W/m 22,5 km/h (4 Bft) 97,87 %
27.11.2017 05:32 3,4 C 3,3 C 1,7 C 91 % 0 lf 1019,4 hPa 0,0 l/m 0 min 0 min 0 W/m 24,8 km/h (4 Bft) 97,83 %
27.11.2017 05:34 3,4 C 3,3 C 1,7 C 91 % 0 lf 1019,4 hPa 0,0 l/m 0 min 0 min 0 W/m 20,3 km/h (4 Bft) 95,74 %
27.11.2017 05:35 3,4 C 3,3 C 1,7 C 90 % 0 lf 1019,4 hPa 0,0 l/m 0 min 0 min 0 W/m 24,8 km/h (4 Bft) 99,12 %
27.11.2017 05:40 3,4 C 3,3 C 1,7 C 90 % 0 lf 1019,3 hPa 0,0 l/m 0 min 0 min 0 W/m 27,0 km/h (4 Bft) 97,50 %
27.11.2017 05:42 3,4 C 3,3 C 1,7 C 91 % 0 lf 1019,4 hPa 0,0 l/m 0 min 0 min 0 W/m 29,3 km/h (5 Bft) 97,87 %
27.11.2017 05:44 3,4 C 3,3 C 1,7 C 90 % 0 lf 1019,3 hPa 0,0 l/m 0 min 0 min 0 W/m 24,8 km/h (4 Bft) 93,62 %
27.11.2017 05:46 3,5 C 3,3 C 1,7 C 90 % 0 lf 1019,3 hPa 0,0 l/m 0 min 0 min 0 W/m 18,0 km/h (3 Bft) 95,74 %
27.11.2017 05:48 3,4 C 3,3 C 1,7 C 90 % 0 lf 1019,3 hPa 0,0 l/m 0 min 0 min 0 W/m 20,3 km/h (4 Bft) 93,48 %
27.11.2017 05:50 3,4 C 3,3 C 1,7 C 91 % 0 lf 1019,2 hPa 0,0 l/m 0 min 0 min 0 W/m 24,8 km/h (4 Bft) 93,62 %
27.11.2017 05:52 3,5 C 3,3 C 1,7 C 91 % 0 lf 1019,2 hPa 0,0 l/m 0 min 0 min 0 W/m 22,5 km/h (4 Bft) 93,22 %
27.11.2017 05:54 3,4 C 3,3 C 2,2 C 91 % 0 lf 1019,0 hPa 0,0 l/m 0 min 0 min 0 W/m 24,8 km/h (4 Bft) 92,68 %
27.11.2017 05:56 3,5 C 3,3 C 2,2 C 91 % 0 lf 1019,0 hPa 0,0 l/m 0 min 0 min 0 W/m 20,3 km/h (4 Bft) 93,62 %
27.11.2017 05:58 3,5 C 3,3 C 1,7 C 91 % 0 lf 1019,0 hPa 0,0 l/m 0 min 0 min 0 W/m 22,5 km/h (4 Bft) 93,62 %
27.11.2017 06:00 3,5 C 3,3 C 2,2 C 91 % 0 lf 1019,0 hPa 0,0 l/m 0 min 0 min 0 W/m 27,0 km/h (4 Bft) 93,62 %
27.11.2017 06:02 3,5 C 3,3 C 1,7 C 91 % 0 lf 1018,9 hPa 0,0 l/m 0 min 0 min 0 W/m 29,3 km/h (5 Bft) 93,48 %
27.11.2017 06:04 3,5 C 3,3 C 2,2 C 91 % 0 lf 1018,9 hPa 0,0 l/m 0 min 0 min 0 W/m 27,0 km/h (4 Bft) 91,49 %
27.11.2017 06:06 3,5 C 3,3 C 2,2 C 91 % 0 lf 1018,9 hPa 0,0 l/m 0 min 0 min 0 W/m 22,5 km/h (4 Bft) 93,62 %
27.11.2017 06:10 3,6 C 3,3 C 2,2 C 91 % 0 lf 1018,9 hPa 0,0 l/m 0 min 0 min 0 W/m 31,5 km/h (5 Bft) 92,78 %
27.11.2017 06:12 3,6 C 3,3 C 2,2 C 91 % 0 lf 1018,8 hPa 0,0 l/m 0 min 0 min 0 W/m 31,5 km/h (5 Bft) 93,62 %
27.11.2017 06:14 3,6 C 3,9 C 2,2 C 91 % 0 lf 1018,8 hPa 0,0 l/m 0 min 0 min 0 W/m 29,3 km/h (5 Bft) 93,48 %
27.11.2017 06:16 3,6 C 3,9 C 2,2 C 90 % 0 lf 1018,8 hPa 0,0 l/m 0 min 0 min 0 W/m 29,3 km/h (5 Bft) 93,62 %
27.11.2017 06:18 3,6 C 3,9 C 2,2 C 90 % 0 lf 1018,8 hPa 0,0 l/m 0 min 0 min 0 W/m 24,8 km/h (4 Bft) 95,74 %
27.11.2017 06:20 3,6 C 3,9 C 2,2 C 90 % 0 lf 1018,8 hPa 0,0 l/m 0 min 0 min 0 W/m 24,8 km/h (4 Bft) 91,49 %
27.11.2017 06:22 3,6 C 3,9 C 2,2 C 90 % 0 lf 1018,8 hPa 0,0 l/m 0 min 0 min 0 W/m 18,0 km/h (3 Bft) 97,87 %
27.11.2017 06:24 3,6 C 3,9 C 2,2 C 90 % 0 lf 1018,8 hPa 0,0 l/m 0 min 0 min 0 W/m 15,8 km/h (3 Bft) 97,96 %
27.11.2017 06:26 3,6 C 3,9 C 2,2 C 90 % 0 lf 1018,8 hPa 0,0 l/m 0 min 0 min 0 W/m 27,0 km/h (4 Bft) 95,74 %
27.11.2017 06:28 3,6 C 3,9 C 2,2 C 90 % 0 lf 1018,7 hPa 0,0 l/m 0 min 0 min 0 W/m 29,3 km/h (5 Bft) 97,87 %
27.11.2017 06:30 3,7 C 3,9 C 2,2 C 90 % 0 lf 1018,8 hPa 0,0 l/m 0 min 0 min 0 W/m 27,0 km/h (4 Bft) 97,83 %
27.11.2017 06:32 3,7 C 3,9 C 2,2 C 90 % 0 lf 1018,7 hPa 0,0 l/m 0 min 0 min 0 W/m 27,0 km/h (4 Bft) 100,00 %
27.11.2017 06:34 3,7 C 3,9 C 2,2 C 90 % 0 lf 1018,7 hPa 0,0 l/m 0 min 0 min 0 W/m 27,0 km/h (4 Bft) 100,00 %
27.11.2017 06:36 3,7 C 3,9 C 2,2 C 90 % 0 lf 1018,6 hPa 0,0 l/m 0 min 0 min 0 W/m 29,3 km/h (5 Bft) 100,00 %
27.11.2017 06:38 3,7 C 3,9 C 2,2 C 90 % 0 lf 1018,6 hPa 0,0 l/m 0 min 0 min 0 W/m 27,0 km/h (4 Bft) 97,87 %
27.11.2017 06:40 3,7 C 3,9 C 2,2 C 90 % 0 lf 1018,6 hPa 0,0 l/m 0 min 0 min 0 W/m 20,3 km/h (4 Bft) 97,87 %
27.11.2017 06:42 3,7 C 3,9 C 2,2 C 90 % 0 lf 1018,6 hPa 0,0 l/m 0 min 0 min 0 W/m 33,8 km/h (5 Bft) 100,00 %
27.11.2017 06:44 3,7 C 3,9 C 2,2 C 90 % 0 lf 1018,5 hPa 0,0 l/m 0 min 0 min 0 W/m 24,8 km/h (4 Bft) 100,00 %
27.11.2017 06:46 3,8 C 3,9 C 2,2 C 90 % 0 lf 1018,4 hPa 0,0 l/m 0 min 0 min 0 W/m 29,3 km/h (5 Bft) 100,00 %
27.11.2017 06:48 3,8 C 3,9 C 2,2 C 90 % 0 lf 1018,4 hPa 0,0 l/m 0 min 0 min 0 W/m 24,8 km/h (4 Bft) 97,87 %
27.11.2017 06:50 3,8 C 3,9 C 2,2 C 90 % 0 lf 1018,4 hPa 0,0 l/m 0 min 0 min 0 W/m 18,0 km/h (3 Bft) 95,74 %
27.11.2017 06:52 3,8 C 3,9 C 2,2 C 90 % 0 lf 1018,4 hPa 0,0 l/m 0 min 0 min 0 W/m 20,3 km/h (4 Bft) 97,87 %
27.11.2017 06:54 3,8 C 3,9 C 2,2 C 90 % 0 lf 1018,3 hPa 0,0 l/m 0 min 0 min 0 W/m 24,8 km/h (4 Bft) 97,56 %
27.11.2017 06:56 3,8 C 3,9 C 2,2 C 90 % 0 lf 1018,3 hPa 0,0 l/m 0 min 0 min 0 W/m 22,5 km/h (4 Bft) 91,49 %
27.11.2017 06:58 3,8 C 3,9 C 2,2 C 90 % 0 lf 1018,2 hPa 0,0 l/m 0 min 0 min 0 W/m 36,0 km/h (5 Bft) 100,00 %
27.11.2017 07:00 3,9 C 3,9 C 2,2 C 90 % 0 lf 1018,1 hPa 0,0 l/m 0 min 0 min 0 W/m 22,5 km/h (4 Bft) 100,00 %
27.11.2017 07:02 3,9 C 3,9 C 2,2 C 90 % 0 lf 1018,2 hPa 0,0 l/m 0 min 0 min 0 W/m 29,3 km/h (5 Bft) 95,74 %
27.11.2017 07:04 3,9 C 3,9 C 2,8 C 90 % 0 lf 1018,1 hPa 0,0 l/m 0 min 0 min 0 W/m 22,5 km/h (4 Bft) 100,00 %
27.11.2017 07:06 3,9 C 3,9 C 2,8 C 90 % 0 lf 1018,0 hPa 0,0 l/m 0 min 0 min 0 W/m 22,5 km/h (4 Bft) 100,00 %
27.11.2017 07:08 4,0 C 3,9 C 2,8 C 90 % 0 lf 1018,0 hPa 0,0 l/m 0 min 0 min 0 W/m 27,0 km/h (4 Bft) 100,00 %
27.11.2017 07:10 4,0 C 4,4 C 2,8 C 90 % 0 lf 1018,0 hPa 0,0 l/m 0 min 0 min 0 W/m 24,8 km/h (4 Bft) 97,87 %
27.11.2017 07:12 4,1 C 4,4 C 2,8 C 90 % 0 lf 1018,0 hPa 0,0 l/m 0 min 0 min 0 W/m 24,8 km/h (4 Bft) 97,83 %
27.11.2017 07:14 4,1 C 4,4 C 2,8 C 90 % 0 lf 1017,9 hPa 0,0 l/m 0 min 0 min 0 W/m 20,3 km/h (4 Bft) 95,74 %
27.11.2017 07:16 4,1 C 4,4 C 2,8 C 90 % 1 lf 1017,9 hPa 0,0 l/m 0 min 2 min 0 W/m 33,8 km/h (5 Bft) 97,87 %
27.11.2017 07:18 4,1 C 4,4 C 2,8 C 90 % 3 lf 1017,8 hPa 0,0 l/m 0 min 0 min 0 W/m 15,8 km/h (3 Bft) 97,87 %
27.11.2017 07:20 4,1 C 4,4 C 2,8 C 90 % 3 lf 1017,9 hPa 0,0 l/m 0 min 2 min 0 W/m 33,8 km/h (5 Bft) 96,61 %
27.11.2017 07:22 4,2 C 3,9 C 2,8 C 90 % 3 lf 1017,8 hPa 0,0 l/m 0 min 2 min 0 W/m 29,3 km/h (5 Bft) 94,29 %
27.11.2017 07:24 4,2 C 3,9 C 2,8 C 90 % 4 lf 1017,8 hPa 0,0 l/m 0 min 2 min 0 W/m 33,8 km/h (5 Bft) 95,65 %
27.11.2017 07:26 4,2 C 3,9 C 2,8 C 90 % 4 lf 1017,7 hPa 0,0 l/m 0 min 2 min 0 W/m 24,8 km/h (4 Bft) 93,62 %
27.11.2017 07:28 4,3 C 3,9 C 2,8 C 89 % 4 lf 1017,8 hPa 0,0 l/m 0 min 2 min 0 W/m 29,3 km/h (5 Bft) 95,74 %
27.11.2017 07:30 4,3 C 3,9 C 2,8 C 90 % 11 lf 1017,7 hPa 0,0 l/m 0 min 2 min 0 W/m 33,8 km/h (5 Bft) 87,23 %
27.11.2017 07:32 4,4 C 3,9 C 2,8 C 90 % 10 lf 1017,6 hPa 0,0 l/m 0 min 2 min 0 W/m 22,5 km/h (4 Bft) 95,74 %
27.11.2017 07:34 4,4 C 3,9 C 2,8 C 90 % 10 lf 1017,5 hPa 0,0 l/m 0 min 2 min 0 W/m 31,5 km/h (5 Bft) 97,87 %
27.11.2017 07:38 4,4 C 3,9 C 2,8 C 90 % 7 lf 1017,4 hPa 0,0 l/m 0 min 4 min 0 W/m 31,5 km/h (5 Bft) 95,70 %
27.11.2017 07:40 4,4 C 3,9 C 2,8 C 90 % 4 lf 1017,4 hPa 0,0 l/m 0 min 2 min 0 W/m 33,8 km/h (5 Bft) 95,74 %
27.11.2017 07:42 4,4 C 3,9 C 2,8 C 90 % 4 lf 1017,5 hPa 0,0 l/m 0 min 2 min 0 W/m 29,3 km/h (5 Bft) 93,62 %
27.11.2017 07:44 4,4 C 3,9 C 2,8 C 90 % 3 lf 1017,3 hPa 0,0 l/m 0 min 2 min 0 W/m 24,8 km/h (4 Bft) 95,74 %
27.11.2017 07:46 4,5 C 3,9 C 2,8 C 90 % 3 lf 1017,4 hPa 0,0 l/m 0 min 2 min 0 W/m 24,8 km/h (4 Bft) 93,62 %
27.11.2017 07:48 4,5 C 3,9 C 2,8 C 90 % 4 lf 1017,3 hPa 0,0 l/m 0 min 2 min 0 W/m 29,3 km/h (5 Bft) 95,65 %
27.11.2017 07:50 4,6 C 4,4 C 2,8 C 90 % 7 lf 1017,3 hPa 0,0 l/m 0 min 2 min 0 W/m 27,0 km/h (4 Bft) 93,44 %
27.11.2017 07:52 4,6 C 4,4 C 2,8 C 90 % 11 lf 1017,2 hPa 0,0 l/m 0 min 2 min 0 W/m 38,3 km/h (5 Bft) 97,14 %
27.11.2017 07:54 4,6 C 3,9 C 2,8 C 90 % 13 lf 1017,3 hPa 0,0 l/m 0 min 2 min 0 W/m 22,5 km/h (4 Bft) 93,75 %
27.11.2017 07:56 4,6 C 3,9 C 2,8 C 91 % 14 lf 1017,2 hPa 0,0 l/m 0 min 2 min 0 W/m 29,3 km/h (5 Bft) 95,74 %
27.11.2017 07:58 4,6 C 3,9 C 2,8 C 91 % 14 lf 1017,2 hPa 0,0 l/m 0 min 2 min 0 W/m 24,8 km/h (4 Bft) 91,30 %
27.11.2017 08:00 4,7 C 3,9 C 2,8 C 91 % 14 lf 1017,2 hPa 0,0 l/m 0 min 2 min 0 W/m 27,0 km/h (4 Bft) 95,74 %
27.11.2017 08:02 4,7 C 3,9 C 2,8 C 91 % 14 lf 1017,0 hPa 0,0 l/m 0 min 2 min 0 W/m 24,8 km/h (4 Bft) 92,00 %
27.11.2017 08:04 4,7 C 3,9 C 2,8 C 91 % 15 lf 1017,0 hPa 0,0 l/m 0 min 2 min 0 W/m 22,5 km/h (4 Bft) 97,83 %
27.11.2017 08:08 4,7 C 4,4 C 2,8 C 91 % 15 lf 1017,0 hPa 0,0 l/m 0 min 4 min 0 W/m 33,8 km/h (5 Bft) 96,39 %
27.11.2017 08:10 4,7 C 4,4 C 2,8 C 91 % 15 lf 1016,9 hPa 0,0 l/m 0 min 2 min 0 W/m 15,8 km/h (3 Bft) 91,49 %
27.11.2017 08:12 4,8 C 4,4 C 2,8 C 91 % 15 lf 1016,9 hPa 0,0 l/m 0 min 2 min 0 W/m 24,8 km/h (4 Bft) 94,34 %
27.11.2017 08:14 4,8 C 4,4 C 2,8 C 91 % 15 lf 1016,9 hPa 0,0 l/m 0 min 2 min 0 W/m 27,0 km/h (4 Bft) 97,87 %
27.11.2017 08:16 4,8 C 4,4 C 2,8 C 91 % 15 lf 1016,9 hPa 0,0 l/m 0 min 2 min 0 W/m 33,8 km/h (5 Bft) 93,62 %
27.11.2017 08:18 4,8 C 4,4 C 2,8 C 91 % 15 lf 1016,9 hPa 0,0 l/m 0 min 2 min 0 W/m 20,3 km/h (4 Bft) 97,87 %
27.11.2017 08:20 4,8 C 4,4 C 3,3 C 92 % 14 lf 1016,7 hPa 0,0 l/m 0 min 2 min 3 W/m 33,8 km/h (5 Bft) 96,61 %
27.11.2017 08:22 4,8 C 4,4 C 3,3 C 92 % 14 lf 1016,7 hPa 0,0 l/m 0 min 2 min 5 W/m 20,3 km/h (4 Bft) 97,37 %
27.11.2017 08:24 4,9 C 4,4 C 3,3 C 92 % 14 lf 1016,7 hPa 0,0 l/m 0 min 2 min 7 W/m 15,8 km/h (3 Bft) 97,96 %
27.11.2017 08:26 4,9 C 4,4 C 3,3 C 92 % 14 lf 1016,7 hPa 0,0 l/m 0 min 0 min 7 W/m 20,3 km/h (4 Bft) 97,87 %
27.11.2017 08:28 4,9 C 4,4 C 3,3 C 92 % 15 lf 1016,8 hPa 0,0 l/m 0 min 2 min 7 W/m 29,3 km/h (5 Bft) 95,65 %
27.11.2017 08:30 4,9 C 4,4 C 3,3 C 92 % 15 lf 1016,7 hPa 0,0 l/m 0 min 2 min 8 W/m 27,0 km/h (4 Bft) 97,87 %
27.11.2017 08:32 4,9 C 4,4 C 3,3 C 92 % 15 lf 1016,6 hPa 0,0 l/m 0 min 2 min 9 W/m 24,8 km/h (4 Bft) 93,62 %
27.11.2017 08:34 4,9 C 4,4 C 3,3 C 92 % 15 lf 1016,6 hPa 0,0 l/m 0 min 2 min 9 W/m 13,5 km/h (3 Bft) 97,87 %
27.11.2017 08:38 5,0 C 4,4 C 3,3 C 92 % 15 lf 1016,5 hPa 0,0 l/m 0 min 4 min 10 W/m 27,0 km/h (4 Bft) 97,85 %
27.11.2017 08:40 5,0 C 4,4 C 3,3 C 92 % 15 lf 1016,5 hPa 0,0 l/m 0 min 2 min 11 W/m 27,0 km/h (4 Bft) 97,87 %
27.11.2017 08:42 5,1 C 4,4 C 3,3 C 92 % 15 lf 1016,4 hPa 0,0 l/m 0 min 2 min 12 W/m 27,0 km/h (4 Bft) 97,87 %
27.11.2017 08:44 5,1 C 4,4 C 3,3 C 92 % 15 lf 1016,5 hPa 0,0 l/m 0 min 2 min 11 W/m 38,3 km/h (5 Bft) 95,74 %
27.11.2017 08:46 5,1 C 4,4 C 3,3 C 92 % 15 lf 1016,4 hPa 0,0 l/m 0 min 2 min 12 W/m 27,0 km/h (4 Bft) 97,87 %
27.11.2017 08:48 5,1 C 4,4 C 3,3 C 93 % 15 lf 1016,3 hPa 0,0 l/m 0 min 2 min 12 W/m 38,3 km/h (5 Bft) 97,87 %
27.11.2017 08:50 5,1 C 4,4 C 3,3 C 93 % 15 lf 1016,3 hPa 0,0 l/m 0 min 2 min 13 W/m 33,8 km/h (5 Bft) 97,83 %
27.11.2017 08:52 5,2 C 4,4 C 3,3 C 93 % 15 lf 1016,2 hPa 0,0 l/m 0 min 2 min 14 W/m 24,8 km/h (4 Bft) 97,67 %
27.11.2017 08:54 5,2 C 4,4 C 3,3 C 93 % 15 lf 1016,1 hPa 0,2 l/m 0 min 2 min 16 W/m 38,3 km/h (5 Bft) 100,00 %
27.11.2017 08:56 5,2 C 5,0 C 3,3 C 93 % 15 lf 1016,2 hPa 0,0 l/m 0 min 2 min 16 W/m 33,8 km/h (5 Bft) 97,83 %
27.11.2017 08:58 5,2 C 5,0 C 3,3 C 93 % 15 lf 1016,1 hPa 0,0 l/m 0 min 2 min 16 W/m 22,5 km/h (4 Bft) 100,00 %
27.11.2017 09:00 5,2 C 5,0 C 3,3 C 93 % 15 lf 1016,0 hPa 0,0 l/m 0 min 2 min 16 W/m 22,5 km/h (4 Bft) 100,00 %
27.11.2017 09:02 5,2 C 5,0 C 3,3 C 93 % 15 lf 1016,0 hPa 0,0 l/m 0 min 2 min 18 W/m 22,5 km/h (4 Bft) 97,92 %
27.11.2017 09:04 5,2 C 5,0 C 3,3 C 93 % 15 lf 1015,9 hPa 0,0 l/m 0 min 2 min 19 W/m 29,3 km/h (5 Bft) 100,00 %
27.11.2017 09:08 5,3 C 5,0 C 3,3 C 93 % 15 lf 1015,9 hPa 0,0 l/m 0 min 4 min 19 W/m 29,3 km/h (5 Bft) 98,78 %
27.11.2017 09:10 5,3 C 5,0 C 3,9 C 93 % 15 lf 1015,9 hPa 0,0 l/m 0 min 2 min 16 W/m 20,3 km/h (4 Bft) 100,00 %
27.11.2017 09:12 5,3 C 4,4 C 3,9 C 93 % 15 lf 1016,0 hPa 0,0 l/m 0 min 2 min 14 W/m 31,5 km/h (5 Bft) 93,62 %
27.11.2017 09:14 5,3 C 4,4 C 3,9 C 93 % 15 lf 1015,9 hPa 0,0 l/m 0 min 2 min 12 W/m 33,8 km/h (5 Bft) 93,62 %
27.11.2017 09:16 5,3 C 4,4 C 3,9 C 93 % 15 lf 1015,9 hPa 0,2 l/m 0 min 2 min 13 W/m 49,6 km/h (6 Bft) 97,87 %
27.11.2017 09:18 5,3 C 4,4 C 3,9 C 93 % 15 lf 1015,8 hPa 0,0 l/m 0 min 2 min 14 W/m 29,3 km/h (5 Bft) 97,83 %
27.11.2017 09:20 5,4 C 4,4 C 3,9 C 93 % 15 lf 1015,8 hPa 0,0 l/m 0 min 2 min 12 W/m 40,6 km/h (6 Bft) 100,00 %
27.11.2017 09:22 5,4 C 4,4 C 3,9 C 93 % 15 lf 1015,8 hPa 0,0 l/m 0 min 2 min 18 W/m 36,0 km/h (5 Bft) 97,14 %
27.11.2017 09:24 5,4 C 5,0 C 3,9 C 94 % 15 lf 1015,8 hPa 0,0 l/m 0 min 2 min 18 W/m 33,8 km/h (5 Bft) 97,87 %
27.11.2017 09:26 5,4 C 5,0 C 3,9 C 94 % 15 lf 1015,8 hPa 0,0 l/m 0 min 2 min 19 W/m 24,8 km/h (4 Bft) 97,87 %
27.11.2017 09:28 5,4 C 5,0 C 3,9 C 93 % 15 lf 1015,9 hPa 0,0 l/m 0 min 2 min 17 W/m 33,8 km/h (5 Bft) 95,74 %
27.11.2017 09:30 5,4 C 5,0 C 3,9 C 94 % 15 lf 1015,8 hPa 0,0 l/m 0 min 2 min 16 W/m 29,3 km/h (5 Bft) 95,65 %
27.11.2017 09:32 5,4 C 5,0 C 3,9 C 94 % 15 lf 1015,8 hPa 0,2 l/m 0 min 2 min 16 W/m 31,5 km/h (5 Bft) 100,00 %
27.11.2017 09:34 5,4 C 5,0 C 3,9 C 94 % 15 lf 1015,8 hPa 0,0 l/m 0 min 2 min 16 W/m 29,3 km/h (5 Bft) 95,74 %
27.11.2017 09:38 5,4 C 5,0 C 3,9 C 94 % 15 lf 1015,7 hPa 0,0 l/m 0 min 4 min 18 W/m 40,6 km/h (6 Bft) 95,74 %
27.11.2017 09:40 5,4 C 5,0 C 3,9 C 94 % 15 lf 1015,6 hPa 0,0 l/m 0 min 2 min 18 W/m 18,0 km/h (3 Bft) 95,65 %
27.11.2017 09:42 5,4 C 5,0 C 3,9 C 94 % 15 lf 1015,6 hPa 0,0 l/m 0 min 2 min 18 W/m 33,8 km/h (5 Bft) 93,62 %
27.11.2017 09:44 5,4 C 5,0 C 3,9 C 94 % 15 lf 1015,5 hPa 0,0 l/m 0 min 2 min 22 W/m 45,1 km/h (6 Bft) 95,74 %
27.11.2017 09:46 5,5 C 5,0 C 3,9 C 94 % 15 lf 1015,5 hPa 0,0 l/m 0 min 2 min 28 W/m 29,3 km/h (5 Bft) 95,74 %
27.11.2017 09:48 5,5 C 5,0 C 3,9 C 94 % 15 lf 1015,4 hPa 0,2 l/m 0 min 2 min 32 W/m 27,0 km/h (4 Bft) 95,74 %
27.11.2017 09:50 5,5 C 5,0 C 3,9 C 94 % 15 lf 1015,3 hPa 0,0 l/m 0 min 2 min 32 W/m 31,5 km/h (5 Bft) 95,45 %
27.11.2017 09:52 5,5 C 5,0 C 3,9 C 94 % 15 lf 1015,3 hPa 0,0 l/m 0 min 2 min 32 W/m 24,8 km/h (4 Bft) 92,11 %
27.11.2017 09:54 5,5 C 5,0 C 3,9 C 94 % 15 lf 1015,2 hPa 0,0 l/m 0 min 2 min 31 W/m 31,5 km/h (5 Bft) 95,74 %
27.11.2017 09:56 5,6 C 5,0 C 3,9 C 94 % 15 lf 1015,2 hPa 0,0 l/m 0 min 2 min 31 W/m 33,8 km/h (5 Bft) 91,49 %
27.11.2017 09:58 5,6 C 5,0 C 3,9 C 94 % 15 lf 1015,1 hPa 0,0 l/m 0 min 2 min 34 W/m 29,3 km/h (5 Bft) 93,62 %
27.11.2017 10:00 5,6 C 5,0 C 3,9 C 94 % 15 lf 1015,0 hPa 0,0 l/m 0 min 2 min 32 W/m 27,0 km/h (4 Bft) 95,74 %
27.11.2017 10:02 5,6 C 5,0 C 4,4 C 94 % 15 lf 1015,0 hPa 0,0 l/m 0 min 2 min 37 W/m 22,5 km/h (4 Bft) 94,44 %
27.11.2017 10:04 5,6 C 5,0 C 4,4 C 95 % 15 lf 1014,9 hPa 0,0 l/m 0 min 2 min 34 W/m 33,8 km/h (5 Bft) 93,62 %
27.11.2017 10:08 5,6 C 5,0 C 4,4 C 95 % 15 lf 1014,9 hPa 0,0 l/m 0 min 4 min 33 W/m 31,5 km/h (5 Bft) 94,62 %
27.11.2017 10:10 5,6 C 5,0 C 4,4 C 95 % 15 lf 1014,8 hPa 0,2 l/m 0 min 2 min 35 W/m 27,0 km/h (4 Bft) 93,62 %
27.11.2017 10:12 5,7 C 5,0 C 4,4 C 95 % 15 lf 1014,7 hPa 0,0 l/m 0 min 2 min 38 W/m 38,3 km/h (5 Bft) 96,23 %
27.11.2017 10:14 5,7 C 5,0 C 4,4 C 95 % 15 lf 1014,7 hPa 0,0 l/m 0 min 2 min 41 W/m 40,6 km/h (6 Bft) 93,62 %
27.11.2017 10:16 5,7 C 5,0 C 4,4 C 95 % 15 lf 1014,7 hPa 0,0 l/m 0 min 2 min 48 W/m 31,5 km/h (5 Bft) 93,75 %
27.11.2017 10:18 5,7 C 5,0 C 4,4 C 95 % 15 lf 1014,6 hPa 0,0 l/m 0 min 2 min 44 W/m 36,0 km/h (5 Bft) 95,74 %
27.11.2017 10:20 5,7 C 5,0 C 4,4 C 95 % 15 lf 1014,6 hPa 0,0 l/m 0 min 2 min 40 W/m 36,0 km/h (5 Bft) 95,00 %
27.11.2017 10:22 5,7 C 5,6 C 4,4 C 95 % 15 lf 1014,5 hPa 0,0 l/m 0 min 2 min 38 W/m 18,0 km/h (3 Bft) 91,43 %
27.11.2017 10:24 5,8 C 5,6 C 4,4 C 95 % 15 lf 1014,4 hPa 0,0 l/m 0 min 2 min 39 W/m 40,6 km/h (6 Bft) 93,88 %
27.11.2017 10:26 5,8 C 5,6 C 4,4 C 95 % 15 lf 1014,4 hPa 0,2 l/m 0 min 2 min 42 W/m 36,0 km/h (5 Bft) 95,74 %
27.11.2017 10:28 5,8 C 5,6 C 4,4 C 95 % 15 lf 1014,3 hPa 0,0 l/m 0 min 2 min 41 W/m 33,8 km/h (5 Bft) 93,62 %
27.11.2017 10:30 5,8 C 5,6 C 4,4 C 95 % 15 lf 1014,3 hPa 0,0 l/m 0 min 2 min 42 W/m 36,0 km/h (5 Bft) 97,87 %
27.11.2017 10:32 5,8 C 5,6 C 4,4 C 95 % 15 lf 1014,3 hPa 0,0 l/m 0 min 2 min 43 W/m 33,8 km/h (5 Bft) 97,87 %
27.11.2017 10:34 5,8 C 5,6 C 4,4 C 95 % 15 lf 1014,4 hPa 0,0 l/m 0 min 2 min 36 W/m 36,0 km/h (5 Bft) 95,74 %
27.11.2017 10:38 5,9 C 5,6 C 4,4 C 95 % 15 lf 1014,3 hPa 0,0 l/m 0 min 4 min 40 W/m 45,1 km/h (6 Bft) 93,90 %
27.11.2017 10:40 5,9 C 5,6 C 4,4 C 95 % 15 lf 1014,4 hPa 0,2 l/m 0 min 2 min 44 W/m 47,3 km/h (6 Bft) 97,83 %
27.11.2017 10:42 5,9 C 5,6 C 4,4 C 95 % 15 lf 1014,3 hPa 0,0 l/m 0 min 2 min 46 W/m 40,6 km/h (6 Bft) 95,74 %
27.11.2017 10:44 5,9 C 5,6 C 4,4 C 95 % 15 lf 1014,2 hPa 0,0 l/m 0 min 2 min 42 W/m 33,8 km/h (5 Bft) 97,87 %
27.11.2017 10:46 6,0 C 5,6 C 4,4 C 95 % 15 lf 1014,3 hPa 0,0 l/m 0 min 2 min 43 W/m 49,6 km/h (6 Bft) 97,87 %
27.11.2017 10:48 6,0 C 5,6 C 4,4 C 95 % 15 lf 1014,4 hPa 0,2 l/m 0 min 2 min 42 W/m 42,8 km/h (6 Bft) 95,74 %
27.11.2017 10:50 6,0 C 5,6 C 4,4 C 95 % 15 lf 1014,2 hPa 0,0 l/m 0 min 2 min 41 W/m 49,6 km/h (6 Bft) 93,10 %
27.11.2017 10:52 6,0 C 5,6 C 4,4 C 95 % 15 lf 1014,2 hPa 0,0 l/m 0 min 2 min 41 W/m 54,1 km/h (7 Bft) 97,14 %
27.11.2017 10:54 6,0 C 5,6 C 4,4 C 95 % 15 lf 1014,1 hPa 0,0 l/m 0 min 2 min 39 W/m 36,0 km/h (5 Bft) 96,36 %
27.11.2017 10:56 6,0 C 5,6 C 4,4 C 95 % 15 lf 1014,1 hPa 0,2 l/m 0 min 2 min 45 W/m 45,1 km/h (6 Bft) 97,87 %
27.11.2017 10:58 6,0 C 5,6 C 4,4 C 95 % 15 lf 1014,1 hPa 0,0 l/m 0 min 2 min 46 W/m 36,0 km/h (5 Bft) 95,74 %
27.11.2017 11:00 6,1 C 5,6 C 4,4 C 95 % 15 lf 1014,0 hPa 0,0 l/m 0 min 2 min 42 W/m 54,1 km/h (7 Bft) 97,87 %
27.11.2017 11:02 6,0 C 5,6 C 4,4 C 95 % 15 lf 1014,0 hPa 0,2 l/m 0 min 2 min 41 W/m 45,1 km/h (6 Bft) 96,00 %
27.11.2017 11:04 6,1 C 5,6 C 4,4 C 95 % 15 lf 1014,1 hPa 0,0 l/m 0 min 2 min 40 W/m 31,5 km/h (5 Bft) 97,83 %
27.11.2017 11:08 6,0 C 5,6 C 4,4 C 95 % 15 lf 1013,9 hPa 0,0 l/m 0 min 4 min 40 W/m 47,3 km/h (6 Bft) 96,84 %
27.11.2017 11:10 6,0 C 5,6 C 4,4 C 95 % 15 lf 1013,8 hPa 0,0 l/m 0 min 2 min 40 W/m 40,6 km/h (6 Bft) 86,96 %
27.11.2017 11:12 6,1 C 5,6 C 4,4 C 95 % 15 lf 1013,9 hPa 0,0 l/m 0 min 2 min 39 W/m 47,3 km/h (6 Bft) 97,87 %
27.11.2017 11:14 6,1 C 5,6 C 4,4 C 95 % 15 lf 1013,9 hPa 0,2 l/m 0 min 2 min 40 W/m 40,6 km/h (6 Bft) 95,74 %
27.11.2017 11:16 6,1 C 5,6 C 4,4 C 95 % 15 lf 1013,8 hPa 0,0 l/m 0 min 2 min 42 W/m 40,6 km/h (6 Bft) 97,87 %
27.11.2017 11:18 6,1 C 5,6 C 4,4 C 95 % 15 lf 1013,7 hPa 0,0 l/m 0 min 2 min 35 W/m 40,6 km/h (6 Bft) 95,74 %
27.11.2017 11:20 6,1 C 5,6 C 4,4 C 95 % 15 lf 1013,6 hPa 0,2 l/m 0 min 2 min 35 W/m 33,8 km/h (5 Bft) 98,25 %
27.11.2017 11:22 6,1 C 5,6 C 4,4 C 95 % 15 lf 1013,6 hPa 0,0 l/m 0 min 2 min 37 W/m 33,8 km/h (5 Bft) 97,14 %
27.11.2017 11:24 6,1 C 5,6 C 4,4 C 95 % 15 lf 1013,6 hPa 0,0 l/m 0 min 2 min 35 W/m 40,6 km/h (6 Bft) 93,62 %
27.11.2017 11:26 6,1 C 5,6 C 4,4 C 95 % 15 lf 1013,6 hPa 0,0 l/m 0 min 2 min 38 W/m 56,3 km/h (7 Bft) 97,92 %
27.11.2017 11:28 6,1 C 5,6 C 4,4 C 95 % 15 lf 1013,5 hPa 0,2 l/m 0 min 2 min 38 W/m 33,8 km/h (5 Bft) 93,62 %
27.11.2017 11:30 6,1 C 5,6 C 4,4 C 95 % 15 lf 1013,5 hPa 0,0 l/m 0 min 2 min 34 W/m 45,1 km/h (6 Bft) 93,62 %
27.11.2017 11:32 6,1 C 5,6 C 4,4 C 95 % 15 lf 1013,5 hPa 0,0 l/m 0 min 2 min 34 W/m 40,6 km/h (6 Bft) 97,14 %
27.11.2017 11:34 6,1 C 5,6 C 4,4 C 95 % 15 lf 1013,4 hPa 0,2 l/m 0 min 2 min 38 W/m 51,8 km/h (7 Bft) 97,87 %
27.11.2017 11:38 6,1 C 5,6 C 4,4 C 95 % 15 lf 1013,1 hPa 0,0 l/m 0 min 4 min 37 W/m 38,3 km/h (5 Bft) 94,62 %
27.11.2017 11:40 6,1 C 5,6 C 4,4 C 95 % 15 lf 1013,0 hPa 0,0 l/m 0 min 2 min 37 W/m 45,1 km/h (6 Bft) 97,87 %
27.11.2017 11:42 6,1 C 5,6 C 4,4 C 95 % 15 lf 1012,7 hPa 0,2 l/m 0 min 2 min 39 W/m 38,3 km/h (5 Bft) 96,23 %
27.11.2017 11:44 6,1 C 5,6 C 4,4 C 95 % 15 lf 1012,7 hPa 0,0 l/m 0 min 2 min 38 W/m 36,0 km/h (5 Bft) 91,49 %
27.11.2017 11:46 6,2 C 5,6 C 4,4 C 95 % 15 lf 1012,8 hPa 0,0 l/m 0 min 2 min 37 W/m 47,3 km/h (6 Bft) 97,87 %
27.11.2017 11:48 6,2 C 5,6 C 4,4 C 95 % 15 lf 1012,7 hPa 0,2 l/m 0 min 2 min 39 W/m 33,8 km/h (5 Bft) 97,87 %
27.11.2017 11:50 6,2 C 5,6 C 4,4 C 95 % 15 lf 1012,5 hPa 0,0 l/m 0 min 2 min 41 W/m 36,0 km/h (5 Bft) 98,28 %
27.11.2017 11:52 6,2 C 5,6 C 5,0 C 95 % 15 lf 1012,5 hPa 0,0 l/m 0 min 2 min 44 W/m 42,8 km/h (6 Bft) 97,14 %
27.11.2017 11:54 6,2 C 5,6 C 5,0 C 95 % 15 lf 1012,2 hPa 0,0 l/m 0 min 2 min 46 W/m 47,3 km/h (6 Bft) 97,87 %
27.11.2017 11:56 6,2 C 5,6 C 4,4 C 95 % 15 lf 1012,1 hPa 0,2 l/m 0 min 2 min 46 W/m 38,3 km/h (5 Bft) 95,74 %
27.11.2017 11:58 6,2 C 5,6 C 5,0 C 95 % 15 lf 1012,1 hPa 0,0 l/m 0 min 2 min 47 W/m 40,6 km/h (6 Bft) 97,87 %
27.11.2017 12:00 6,2 C 5,6 C 5,0 C 95 % 15 lf 1012,2 hPa 0,0 l/m 0 min 2 min 48 W/m 36,0 km/h (5 Bft) 97,87 %
27.11.2017 12:02 6,2 C 5,6 C 5,0 C 95 % 15 lf 1012,0 hPa 0,0 l/m 0 min 2 min 46 W/m 51,8 km/h (7 Bft) 95,83 %
27.11.2017 12:04 6,2 C 5,6 C 5,0 C 95 % 15 lf 1011,9 hPa 0,2 l/m 0 min 2 min 51 W/m 45,1 km/h (6 Bft) 97,83 %
27.11.2017 12:08 6,3 C 5,6 C 5,0 C 95 % 15 lf 1011,7 hPa 0,0 l/m 0 min 4 min 51 W/m 51,8 km/h (7 Bft) 96,84 %
27.11.2017 12:12 6,3 C 5,6 C 5,0 C 95 % 15 lf 1011,7 hPa 0,0 l/m 0 min 4 min 63 W/m 45,1 km/h (6 Bft) 96,84 %
27.11.2017 12:14 6,3 C 5,6 C 5,0 C 95 % 15 lf 1011,6 hPa 0,0 l/m 0 min 2 min 59 W/m 47,3 km/h (6 Bft) 99,31 %
27.11.2017 12:16 6,4 C 5,6 C 5,0 C 95 % 15 lf 1011,5 hPa 0,0 l/m 0 min 2 min 47 W/m 47,3 km/h (6 Bft) 97,87 %
27.11.2017 12:18 6,4 C 5,6 C 5,0 C 95 % 15 lf 1011,5 hPa 0,0 l/m 0 min 2 min 47 W/m 40,6 km/h (6 Bft) 100,00 %
27.11.2017 12:20 6,4 C 5,6 C 5,0 C 95 % 15 lf 1011,5 hPa 0,0 l/m 0 min 2 min 50 W/m 45,1 km/h (6 Bft) 97,83 %
27.11.2017 12:22 6,4 C 5,6 C 5,0 C 95 % 15 lf 1011,6 hPa 0,0 l/m 0 min 2 min 42 W/m 36,0 km/h (5 Bft) 100,00 %
27.11.2017 12:24 6,4 C 5,6 C 5,0 C 95 % 15 lf 1011,6 hPa 0,0 l/m 0 min 2 min 38 W/m 42,8 km/h (6 Bft) 100,00 %
27.11.2017 12:26 6,4 C 5,6 C 5,0 C 95 % 15 lf 1011,6 hPa 0,0 l/m 0 min 2 min 39 W/m 45,1 km/h (6 Bft) 100,00 %
27.11.2017 12:28 6,4 C 5,6 C 5,0 C 95 % 15 lf 1011,5 hPa 0,2 l/m 0 min 2 min 36 W/m 47,3 km/h (6 Bft) 97,87 %
27.11.2017 12:30 6,4 C 5,6 C 5,0 C 95 % 15 lf 1011,5 hPa 0,0 l/m 0 min 2 min 30 W/m 33,8 km/h (5 Bft) 100,00 %
27.11.2017 12:32 6,4 C 5,6 C 5,0 C 95 % 15 lf 1011,5 hPa 0,0 l/m 0 min 2 min 24 W/m 56,3 km/h (7 Bft) 100,00 %
27.11.2017 12:34 6,4 C 5,6 C 5,0 C 95 % 15 lf 1011,4 hPa 0,0 l/m 0 min 2 min 25 W/m 38,3 km/h (5 Bft) 100,00 %
27.11.2017 12:38 6,4 C 5,6 C 5,0 C 95 % 15 lf 1011,6 hPa 0,0 l/m 0 min 4 min 18 W/m 51,8 km/h (7 Bft) 97,85 %
27.11.2017 12:40 6,4 C 5,6 C 5,0 C 95 % 15 lf 1011,6 hPa 0,0 l/m 0 min 2 min 18 W/m 38,3 km/h (5 Bft) 95,74 %
27.11.2017 12:42 6,4 C 5,6 C 5,0 C 95 % 15 lf 1011,5 hPa 0,0 l/m 0 min 2 min 19 W/m 36,0 km/h (5 Bft) 100,00 %
27.11.2017 12:44 6,4 C 5,6 C 5,0 C 95 % 15 lf 1011,5 hPa 0,0 l/m 0 min 2 min 24 W/m 38,3 km/h (5 Bft) 97,87 %
27.11.2017 12:46 6,4 C 5,6 C 5,0 C 95 % 15 lf 1011,4 hPa 0,0 l/m 0 min 2 min 30 W/m 49,6 km/h (6 Bft) 100,00 %
27.11.2017 12:48 6,4 C 6,1 C 5,0 C 95 % 15 lf 1011,3 hPa 0,2 l/m 0 min 2 min 29 W/m 45,1 km/h (6 Bft) 100,00 %
27.11.2017 12:50 6,5 C 6,1 C 5,0 C 95 % 15 lf 1011,3 hPa 0,0 l/m 0 min 2 min 25 W/m 51,8 km/h (7 Bft) 96,61 %
27.11.2017 12:52 6,5 C 6,1 C 5,0 C 95 % 15 lf 1011,2 hPa 0,0 l/m 0 min 2 min 23 W/m 31,5 km/h (5 Bft) 94,29 %
27.11.2017 12:54 6,5 C 6,1 C 5,0 C 95 % 15 lf 1011,2 hPa 0,0 l/m 0 min 2 min 22 W/m 42,8 km/h (6 Bft) 95,74 %
27.11.2017 12:56 6,5 C 6,1 C 5,0 C 95 % 15 lf 1011,1 hPa 0,0 l/m 0 min 2 min 33 W/m 69,8 km/h (8 Bft) 97,87 %
27.11.2017 12:58 6,6 C 6,1 C 5,0 C 95 % 15 lf 1011,1 hPa 0,0 l/m 0 min 2 min 38 W/m 49,6 km/h (6 Bft) 95,74 %
27.11.2017 13:00 6,6 C 6,1 C 5,0 C 95 % 15 lf 1011,2 hPa 0,0 l/m 0 min 2 min 41 W/m 58,6 km/h (7 Bft) 100,00 %
27.11.2017 13:02 6,6 C 6,1 C 5,0 C 95 % 15 lf 1011,0 hPa 0,2 l/m 0 min 2 min 37 W/m 38,3 km/h (5 Bft) 96,36 %
27.11.2017 13:04 6,6 C 6,1 C 5,0 C 95 % 15 lf 1010,9 hPa 0,0 l/m 0 min 2 min 33 W/m 36,0 km/h (5 Bft) 97,87 %
27.11.2017 13:08 6,6 C 6,1 C 5,0 C 95 % 15 lf 1010,8 hPa 0,0 l/m 0 min 4 min 31 W/m 42,8 km/h (6 Bft) 95,83 %
27.11.2017 13:10 6,7 C 6,1 C 5,0 C 95 % 15 lf 1010,8 hPa 0,2 l/m 0 min 2 min 31 W/m 29,3 km/h (5 Bft) 93,62 %
27.11.2017 13:12 6,7 C 6,1 C 5,0 C 95 % 15 lf 1010,8 hPa 0,0 l/m 0 min 2 min 33 W/m 38,3 km/h (5 Bft) 93,48 %
27.11.2017 13:14 6,7 C 6,1 C 5,0 C 95 % 15 lf 1010,8 hPa 0,0 l/m 0 min 2 min 29 W/m 31,5 km/h (5 Bft) 95,74 %
27.11.2017 13:16 6,7 C 6,1 C 5,0 C 95 % 15 lf 1010,8 hPa 0,0 l/m 0 min 2 min 28 W/m 31,5 km/h (5 Bft) 93,62 %
27.11.2017 13:18 6,7 C 6,1 C 5,0 C 95 % 15 lf 1010,6 hPa 0,0 l/m 0 min 2 min 25 W/m 49,6 km/h (6 Bft) 93,62 %
27.11.2017 13:20 6,7 C 6,1 C 5,0 C 95 % 15 lf 1010,6 hPa 0,2 l/m 0 min 2 min 23 W/m 49,6 km/h (6 Bft) 95,74 %
27.11.2017 13:22 6,7 C 6,1 C 5,0 C 95 % 15 lf 1010,7 hPa 0,0 l/m 0 min 2 min 22 W/m 27,0 km/h (4 Bft) 89,36 %
27.11.2017 13:24 6,7 C 6,1 C 5,0 C 95 % 15 lf 1010,6 hPa 0,0 l/m 0 min 2 min 29 W/m 47,3 km/h (6 Bft) 93,48 %
27.11.2017 13:26 6,7 C 6,1 C 5,0 C 95 % 15 lf 1010,7 hPa 0,0 l/m 0 min 2 min 32 W/m 40,6 km/h (6 Bft) 95,74 %
27.11.2017 13:28 6,7 C 6,1 C 5,0 C 95 % 15 lf 1010,6 hPa 0,0 l/m 0 min 2 min 26 W/m 42,8 km/h (6 Bft) 93,62 %
27.11.2017 13:30 6,7 C 6,1 C 5,0 C 95 % 15 lf 1010,6 hPa 0,0 l/m 0 min 2 min 23 W/m 38,3 km/h (5 Bft) 91,49 %
27.11.2017 13:32 6,7 C 6,1 C 5,0 C 95 % 15 lf 1010,7 hPa 0,0 l/m 0 min 2 min 32 W/m 33,8 km/h (5 Bft) 89,58 %
27.11.2017 13:34 6,7 C 6,1 C 5,0 C 95 % 15 lf 1010,5 hPa 0,2 l/m 0 min 2 min 40 W/m 42,8 km/h (6 Bft) 89,36 %
27.11.2017 13:38 6,7 C 6,1 C 5,0 C 95 % 15 lf 1010,5 hPa 0,0 l/m 0 min 4 min 32 W/m 51,8 km/h (7 Bft) 91,49 %
27.11.2017 13:40 6,8 C 6,1 C 5,0 C 95 % 15 lf 1010,7 hPa 0,0 l/m 0 min 2 min 27 W/m 58,6 km/h (7 Bft) 91,49 %
27.11.2017 13:42 6,8 C 6,1 C 5,0 C 95 % 15 lf 1010,6 hPa 0,0 l/m 0 min 2 min 25 W/m 56,3 km/h (7 Bft) 93,48 %
27.11.2017 13:44 6,8 C 6,1 C 5,0 C 95 % 15 lf 1010,5 hPa 0,0 l/m 0 min 2 min 26 W/m 58,6 km/h (7 Bft) 87,23 %
27.11.2017 13:46 6,8 C 6,1 C 5,0 C 95 % 15 lf 1010,5 hPa 0,0 l/m 0 min 2 min 26 W/m 40,6 km/h (6 Bft) 91,49 %
27.11.2017 13:48 6,8 C 6,1 C 5,0 C 95 % 15 lf 1010,5 hPa 0,0 l/m 0 min 2 min 24 W/m 45,1 km/h (6 Bft) 93,62 %
27.11.2017 13:50 6,8 C 6,1 C 5,0 C 95 % 15 lf 1010,4 hPa 0,0 l/m 0 min 2 min 20 W/m 38,3 km/h (5 Bft) 93,62 %
27.11.2017 13:52 6,8 C 6,1 C 5,0 C 95 % 15 lf 1010,4 hPa 0,0 l/m 0 min 2 min 20 W/m 29,3 km/h (5 Bft) 93,62 %
27.11.2017 13:54 6,8 C 6,1 C 5,0 C 95 % 15 lf 1010,4 hPa 0,0 l/m 0 min 2 min 23 W/m 42,8 km/h (6 Bft) 93,48 %
27.11.2017 13:56 6,8 C 6,1 C 5,0 C 95 % 15 lf 1010,3 hPa 0,2 l/m 0 min 2 min 27 W/m 42,8 km/h (6 Bft) 93,62 %
27.11.2017 13:58 6,8 C 6,1 C 5,0 C 95 % 15 lf 1010,4 hPa 0,0 l/m 0 min 2 min 26 W/m 51,8 km/h (7 Bft) 95,74 %
27.11.2017 14:00 6,8 C 6,1 C 5,0 C 95 % 15 lf 1010,3 hPa 0,0 l/m 0 min 2 min 24 W/m 47,3 km/h (6 Bft) 95,74 %
27.11.2017 14:02 6,8 C 6,1 C 5,0 C 95 % 15 lf 1010,4 hPa 0,0 l/m 0 min 2 min 23 W/m 33,8 km/h (5 Bft) 91,67 %
27.11.2017 14:04 6,8 C 6,1 C 5,0 C 95 % 15 lf 1010,3 hPa 0,0 l/m 0 min 2 min 28 W/m 31,5 km/h (5 Bft) 95,74 %
27.11.2017 14:08 6,8 C 6,1 C 5,0 C 95 % 15 lf 1010,2 hPa 0,0 l/m 0 min 4 min 29 W/m 56,3 km/h (7 Bft) 94,00 %
27.11.2017 14:10 6,8 C 6,1 C 5,0 C 95 % 15 lf 1010,1 hPa 0,2 l/m 0 min 2 min 31 W/m 60,8 km/h (7 Bft) 93,62 %
27.11.2017 14:12 6,8 C 6,1 C 5,0 C 95 % 15 lf 1010,1 hPa 0,0 l/m 0 min 2 min 32 W/m 54,1 km/h (7 Bft) 93,62 %
27.11.2017 14:14 6,9 C 6,1 C 5,0 C 95 % 15 lf 1010,1 hPa 0,0 l/m 0 min 2 min 29 W/m 38,3 km/h (5 Bft) 93,62 %
27.11.2017 14:16 6,9 C 6,1 C 5,0 C 95 % 15 lf 1010,1 hPa 0,0 l/m 0 min 2 min 30 W/m 45,1 km/h (6 Bft) 97,87 %
27.11.2017 14:18 6,9 C 6,1 C 5,6 C 95 % 15 lf 1010,0 hPa 0,0 l/m 0 min 2 min 38 W/m 38,3 km/h (5 Bft) 97,87 %
27.11.2017 14:24 6,9 C 6,1 C 5,6 C 95 % 15 lf 1010,2 hPa 0,0 l/m 0 min 5 min 44 W/m 56,3 km/h (7 Bft) 99,05 %
27.11.2017 14:26 6,9 C 6,1 C 5,6 C 95 % 15 lf 1010,0 hPa 0,0 l/m 0 min 2 min 42 W/m 49,6 km/h (6 Bft) 95,74 %
27.11.2017 14:28 6,9 C 6,1 C 5,6 C 95 % 15 lf 1009,8 hPa 0,0 l/m 0 min 2 min 45 W/m 56,3 km/h (7 Bft) 100,00 %
27.11.2017 14:30 6,9 C 6,1 C 5,6 C 95 % 15 lf 1009,9 hPa 0,0 l/m 0 min 2 min 52 W/m 40,6 km/h (6 Bft) 100,00 %
27.11.2017 14:32 6,9 C 6,1 C 5,6 C 95 % 15 lf 1009,9 hPa 0,0 l/m 0 min 2 min 49 W/m 45,1 km/h (6 Bft) 100,00 %
27.11.2017 14:34 6,9 C 6,1 C 5,6 C 95 % 15 lf 1009,8 hPa 0,2 l/m 0 min 2 min 45 W/m 40,6 km/h (6 Bft) 97,87 %
27.11.2017 14:36 7,0 C 6,1 C 5,6 C 95 % 15 lf 1009,7 hPa 0,0 l/m 0 min 2 min 39 W/m 42,8 km/h (6 Bft) 97,87 %
27.11.2017 14:38 7,0 C 6,1 C 5,6 C 95 % 15 lf 1009,8 hPa 0,0 l/m 0 min 2 min 32 W/m 54,1 km/h (7 Bft) 100,00 %
27.11.2017 14:40 7,0 C 6,1 C 5,6 C 95 % 15 lf 1009,7 hPa 0,0 l/m 0 min 2 min 29 W/m 45,1 km/h (6 Bft) 100,00 %
27.11.2017 14:42 7,0 C 6,1 C 5,6 C 95 % 15 lf 1009,7 hPa 0,0 l/m 0 min 2 min 31 W/m 45,1 km/h (6 Bft) 100,00 %
27.11.2017 14:44 7,0 C 6,1 C 5,6 C 95 % 15 lf 1009,7 hPa 0,0 l/m 0 min 2 min 42 W/m 45,1 km/h (6 Bft) 100,00 %
27.11.2017 14:46 7,1 C 6,1 C 5,6 C 95 % 15 lf 1009,4 hPa 0,0 l/m 0 min 2 min 37 W/m 51,8 km/h (7 Bft) 100,00 %
27.11.2017 14:48 7,1 C 6,1 C 5,6 C 95 % 15 lf 1009,4 hPa 0,0 l/m 0 min 2 min 36 W/m 47,3 km/h (6 Bft) 97,87 %
27.11.2017 14:50 7,1 C 6,1 C 5,6 C 95 % 15 lf 1009,5 hPa 0,0 l/m 0 min 2 min 43 W/m 47,3 km/h (6 Bft) 100,00 %
27.11.2017 14:52 7,1 C 6,7 C 5,6 C 95 % 15 lf 1009,4 hPa 0,0 l/m 0 min 2 min 41 W/m 56,3 km/h (7 Bft) 97,87 %
27.11.2017 14:54 7,1 C 6,7 C 5,6 C 95 % 15 lf 1009,3 hPa 0,0 l/m 0 min 2 min 40 W/m 58,6 km/h (7 Bft) 100,00 %
27.11.2017 14:56 7,1 C 6,7 C 5,6 C 95 % 15 lf 1009,3 hPa 0,0 l/m 0 min 2 min 40 W/m 58,6 km/h (7 Bft) 100,00 %
27.11.2017 14:58 7,1 C 6,7 C 5,6 C 95 % 15 lf 1009,3 hPa 0,0 l/m 0 min 2 min 39 W/m 49,6 km/h (6 Bft) 97,87 %
27.11.2017 15:00 7,1 C 6,7 C 5,6 C 95 % 15 lf 1009,3 hPa 0,0 l/m 0 min 2 min 39 W/m 45,1 km/h (6 Bft) 100,00 %
27.11.2017 15:02 7,1 C 6,1 C 5,6 C 95 % 15 lf 1009,4 hPa 0,0 l/m 0 min 2 min 34 W/m 45,1 km/h (6 Bft) 100,00 %
27.11.2017 15:04 7,1 C 6,1 C 5,6 C 95 % 15 lf 1009,3 hPa 0,0 l/m 0 min 2 min 35 W/m 42,8 km/h (6 Bft) 97,87 %
27.11.2017 15:06 7,1 C 6,1 C 5,6 C 95 % 15 lf 1009,2 hPa 0,0 l/m 0 min 2 min 34 W/m 49,6 km/h (6 Bft) 100,00 %
27.11.2017 15:10 7,1 C 6,1 C 5,6 C 95 % 15 lf 1009,2 hPa 0,0 l/m 0 min 4 min 27 W/m 47,3 km/h (6 Bft) 95,70 %
27.11.2017 15:12 7,1 C 6,1 C 5,6 C 95 % 15 lf 1009,1 hPa 0,0 l/m 0 min 2 min 18 W/m 49,6 km/h (6 Bft) 100,00 %
27.11.2017 15:14 7,1 C 6,1 C 5,6 C 95 % 15 lf 1009,3 hPa 0,0 l/m 0 min 2 min 17 W/m 40,6 km/h (6 Bft) 100,00 %
27.11.2017 15:16 7,1 C 6,1 C 5,6 C 95 % 15 lf 1009,2 hPa 0,0 l/m 0 min 2 min 14 W/m 45,1 km/h (6 Bft) 100,00 %
27.11.2017 15:18 7,1 C 6,1 C 5,6 C 95 % 15 lf 1009,1 hPa 0,0 l/m 0 min 2 min 14 W/m 42,8 km/h (6 Bft) 97,87 %
27.11.2017 15:20 7,1 C 6,1 C 5,6 C 95 % 15 lf 1009,2 hPa 0,0 l/m 0 min 2 min 12 W/m 47,3 km/h (6 Bft) 97,96 %
27.11.2017 15:22 7,1 C 6,1 C 5,6 C 95 % 15 lf 1009,3 hPa 0,0 l/m 0 min 2 min 11 W/m 47,3 km/h (6 Bft) 95,74 %
27.11.2017 15:24 7,1 C 6,1 C 5,6 C 95 % 15 lf 1009,2 hPa 0,0 l/m 0 min 2 min 11 W/m 47,3 km/h (6 Bft) 95,74 %
27.11.2017 15:26 7,1 C 6,1 C 5,6 C 95 % 15 lf 1009,2 hPa 0,0 l/m 0 min 2 min 11 W/m 45,1 km/h (6 Bft) 95,74 %
27.11.2017 15:28 7,1 C 6,1 C 5,6 C 95 % 15 lf 1009,2 hPa 0,0 l/m 0 min 2 min 11 W/m 54,1 km/h (7 Bft) 97,87 %
27.11.2017 15:30 7,1 C 6,1 C 5,6 C 95 % 15 lf 1009,2 hPa 0,0 l/m 0 min 2 min 11 W/m 56,3 km/h (7 Bft) 97,87 %
27.11.2017 15:32 7,1 C 6,1 C 5,6 C 95 % 15 lf 1009,2 hPa 0,0 l/m 0 min 2 min 11 W/m 47,3 km/h (6 Bft) 97,92 %
27.11.2017 15:34 7,1 C 6,1 C 5,6 C 95 % 15 lf 1009,1 hPa 0,0 l/m 0 min 2 min 11 W/m 45,1 km/h (6 Bft) 97,87 %
27.11.2017 15:36 7,1 C 6,1 C 5,6 C 95 % 15 lf 1009,1 hPa 0,2 l/m 0 min 2 min 12 W/m 38,3 km/h (5 Bft) 93,62 %
27.11.2017 15:38 7,1 C 6,1 C 5,6 C 95 % 15 lf 1009,1 hPa 0,0 l/m 0 min 2 min 12 W/m 40,6 km/h (6 Bft) 100,00 %
27.11.2017 15:40 7,1 C 6,1 C 5,6 C 95 % 15 lf 1009,0 hPa 0,0 l/m 0 min 2 min 12 W/m 31,5 km/h (5 Bft) 95,65 %
27.11.2017 15:42 7,1 C 6,1 C 5,6 C 95 % 15 lf 1009,0 hPa 0,0 l/m 0 min 2 min 9 W/m 38,3 km/h (5 Bft) 92,11 %
27.11.2017 15:44 7,0 C 6,1 C 5,6 C 95 % 15 lf 1009,1 hPa 0,0 l/m 0 min 2 min 10 W/m 38,3 km/h (5 Bft) 93,62 %
27.11.2017 15:46 7,0 C 6,1 C 5,6 C 95 % 15 lf 1009,0 hPa 0,0 l/m 0 min 2 min 7 W/m 42,8 km/h (6 Bft) 95,74 %
27.11.2017 15:48 7,1 C 6,1 C 5,6 C 95 % 15 lf 1008,9 hPa 0,0 l/m 0 min 2 min 7 W/m 33,8 km/h (5 Bft) 93,62 %
27.11.2017 15:50 7,1 C 6,1 C 5,6 C 95 % 15 lf 1008,9 hPa 0,0 l/m 0 min 2 min 7 W/m 47,3 km/h (6 Bft) 95,74 %
27.11.2017 15:52 7,1 C 6,1 C 5,6 C 95 % 15 lf 1008,9 hPa 0,0 l/m 0 min 2 min 6 W/m 29,3 km/h (5 Bft) 100,00 %
27.11.2017 15:54 7,1 C 6,1 C 5,6 C 95 % 15 lf 1008,9 hPa 0,0 l/m 0 min 2 min 5 W/m 36,0 km/h (5 Bft) 97,83 %
27.11.2017 15:56 7,1 C 6,1 C 5,6 C 95 % 15 lf 1008,8 hPa 0,0 l/m 0 min 2 min 0 W/m 31,5 km/h (5 Bft) 95,74 %
27.11.2017 15:58 7,1 C 6,1 C 5,6 C 95 % 15 lf 1008,8 hPa 0,0 l/m 0 min 2 min 1 W/m 42,8 km/h (6 Bft) 97,87 %
27.11.2017 16:00 7,1 C 6,1 C 5,6 C 95 % 15 lf 1008,7 hPa 0,0 l/m 0 min 2 min 5 W/m 47,3 km/h (6 Bft) 97,87 %
27.11.2017 16:02 7,1 C 6,1 C 5,6 C 95 % 15 lf 1008,7 hPa 0,0 l/m 0 min 2 min 3 W/m 24,8 km/h (4 Bft) 94,00 %
27.11.2017 16:04 7,1 C 6,1 C 5,6 C 95 % 15 lf 1008,8 hPa 0,0 l/m 0 min 2 min 3 W/m 33,8 km/h (5 Bft) 95,65 %
27.11.2017 16:06 7,1 C 6,7 C 5,6 C 95 % 15 lf 1008,8 hPa 0,0 l/m 0 min 2 min 1 W/m 40,6 km/h (6 Bft) 95,74 %
27.11.2017 16:10 7,1 C 6,7 C 5,6 C 95 % 15 lf 1008,7 hPa 0,0 l/m 0 min 4 min 0 W/m 42,8 km/h (6 Bft) 97,80 %
27.11.2017 16:12 7,1 C 6,7 C 5,6 C 95 % 15 lf 1008,7 hPa 0,0 l/m 0 min 2 min 0 W/m 40,6 km/h (6 Bft) 97,87 %
27.11.2017 16:14 7,1 C 6,7 C 5,6 C 95 % 15 lf 1008,7 hPa 0,0 l/m 0 min 2 min 0 W/m 40,6 km/h (6 Bft) 95,74 %
27.11.2017 16:16 7,1 C 6,7 C 5,6 C 95 % 15 lf 1008,7 hPa 0,0 l/m 0 min 2 min 0 W/m 51,8 km/h (7 Bft) 93,62 %
27.11.2017 16:18 7,2 C 6,7 C 5,6 C 95 % 15 lf 1008,6 hPa 0,0 l/m 0 min 2 min 0 W/m 47,3 km/h (6 Bft) 93,62 %
27.11.2017 16:20 7,2 C 6,7 C 5,6 C 95 % 15 lf 1008,6 hPa 0,0 l/m 0 min 2 min 0 W/m 27,0 km/h (4 Bft) 94,83 %
27.11.2017 16:22 7,2 C 6,7 C 5,6 C 95 % 15 lf 1008,6 hPa 0,0 l/m 0 min 2 min 0 W/m 29,3 km/h (5 Bft) 97,14 %
27.11.2017 16:24 7,2 C 6,7 C 5,6 C 95 % 15 lf 1008,6 hPa 0,0 l/m 0 min 2 min 0 W/m 29,3 km/h (5 Bft) 93,62 %
27.11.2017 16:26 7,2 C 6,7 C 5,6 C 95 % 15 lf 1008,6 hPa 0,0 l/m 0 min 2 min 0 W/m 45,1 km/h (6 Bft) 95,74 %
27.11.2017 16:28 7,2 C 6,7 C 5,6 C 95 % 15 lf 1008,5 hPa 0,0 l/m 0 min 2 min 0 W/m 36,0 km/h (5 Bft) 95,74 %
27.11.2017 16:30 7,2 C 6,7 C 5,6 C 95 % 15 lf 1008,6 hPa 0,0 l/m 0 min 2 min 0 W/m 38,3 km/h (5 Bft) 97,87 %
27.11.2017 16:32 7,2 C 6,7 C 5,6 C 95 % 15 lf 1008,5 hPa 0,0 l/m 0 min 2 min 0 W/m 29,3 km/h (5 Bft) 97,83 %
27.11.2017 16:34 7,2 C 6,7 C 5,6 C 95 % 15 lf 1008,5 hPa 0,0 l/m 0 min 2 min 0 W/m 24,8 km/h (4 Bft) 96,00 %
27.11.2017 16:36 7,2 C 6,7 C 5,6 C 95 % 15 lf 1008,5 hPa 0,0 l/m 0 min 2 min 0 W/m 20,3 km/h (4 Bft) 97,87 %
27.11.2017 16:38 7,2 C 6,7 C 5,6 C 95 % 15 lf 1008,5 hPa 0,0 l/m 0 min 2 min 0 W/m 33,8 km/h (5 Bft) 95,74 %
27.11.2017 16:40 7,2 C 6,7 C 5,6 C 95 % 15 lf 1008,6 hPa 0,0 l/m 0 min 2 min 0 W/m 33,8 km/h (5 Bft) 97,83 %
27.11.2017 16:42 7,2 C 6,7 C 5,6 C 95 % 15 lf 1008,5 hPa 0,0 l/m 0 min 2 min 0 W/m 45,1 km/h (6 Bft) 97,87 %
27.11.2017 16:44 7,2 C 6,7 C 5,6 C 95 % 15 lf 1008,5 hPa 0,0 l/m 0 min 2 min 0 W/m 33,8 km/h (5 Bft) 97,87 %
27.11.2017 16:46 7,2 C 6,7 C 5,6 C 95 % 15 lf 1008,5 hPa 0,0 l/m 0 min 2 min 0 W/m 40,6 km/h (6 Bft) 97,87 %
27.11.2017 16:48 7,2 C 6,7 C 5,6 C 95 % 15 lf 1008,4 hPa 0,0 l/m 0 min 2 min 0 W/m 33,8 km/h (5 Bft) 98,11 %
27.11.2017 16:50 7,2 C 6,7 C 5,6 C 95 % 15 lf 1008,5 hPa 0,0 l/m 0 min 2 min 0 W/m 36,0 km/h (5 Bft) 93,88 %
27.11.2017 16:52 7,2 C 6,7 C 5,6 C 95 % 15 lf 1008,5 hPa 0,0 l/m 0 min 2 min 0 W/m 31,5 km/h (5 Bft) 100,00 %
27.11.2017 16:54 7,2 C 6,7 C 5,6 C 95 % 15 lf 1008,4 hPa 0,0 l/m 0 min 2 min 0 W/m 36,0 km/h (5 Bft) 93,62 %
27.11.2017 16:56 7,2 C 6,7 C 5,6 C 95 % 15 lf 1008,3 hPa 0,0 l/m 0 min 2 min 0 W/m 27,0 km/h (4 Bft) 95,74 %
27.11.2017 16:58 7,2 C 6,7 C 5,6 C 95 % 15 lf 1008,4 hPa 0,0 l/m 0 min 2 min 0 W/m 45,1 km/h (6 Bft) 97,87 %
27.11.2017 17:00 7,2 C 6,7 C 5,6 C 95 % 15 lf 1008,4 hPa 0,0 l/m 0 min 2 min 0 W/m 40,6 km/h (6 Bft) 97,87 %
27.11.2017 17:02 7,2 C 6,7 C 5,6 C 95 % 15 lf 1008,2 hPa 0,0 l/m 0 min 2 min 0 W/m 42,8 km/h (6 Bft) 100,00 %
27.11.2017 17:04 7,2 C 6,7 C 5,6 C 95 % 15 lf 1008,3 hPa 0,0 l/m 0 min 2 min 0 W/m 38,3 km/h (5 Bft) 95,74 %
27.11.2017 17:06 7,2 C 6,7 C 5,6 C 95 % 15 lf 1008,2 hPa 0,0 l/m 0 min 2 min 0 W/m 36,0 km/h (5 Bft) 93,62 %
27.11.2017 17:10 7,2 C 6,7 C 5,6 C 95 % 15 lf 1008,0 hPa 0,0 l/m 0 min 4 min 0 W/m 38,3 km/h (5 Bft) 96,00 %
27.11.2017 17:12 7,2 C 6,7 C 5,6 C 95 % 15 lf 1008,1 hPa 0,2 l/m 0 min 2 min 0 W/m 33,8 km/h (5 Bft) 94,74 %
27.11.2017 17:14 7,2 C 6,7 C 5,6 C 95 % 15 lf 1008,1 hPa 0,0 l/m 0 min 2 min 0 W/m 45,1 km/h (6 Bft) 95,92 %
27.11.2017 17:16 7,2 C 6,7 C 5,6 C 95 % 15 lf 1008,0 hPa 0,0 l/m 0 min 2 min 0 W/m 49,6 km/h (6 Bft) 95,74 %
27.11.2017 17:18 7,3 C 6,7 C 5,6 C 95 % 15 lf 1008,0 hPa 0,0 l/m 0 min 2 min 0 W/m 40,6 km/h (6 Bft) 91,49 %
27.11.2017 17:20 7,3 C 6,7 C 5,6 C 95 % 15 lf 1008,0 hPa 0,0 l/m 0 min 2 min 0 W/m 36,0 km/h (5 Bft) 95,74 %
27.11.2017 17:22 7,3 C 6,7 C 5,6 C 95 % 15 lf 1008,0 hPa 0,0 l/m 0 min 2 min 0 W/m 33,8 km/h (5 Bft) 93,62 %
27.11.2017 17:24 7,3 C 6,7 C 5,6 C 95 % 15 lf 1007,9 hPa 0,0 l/m 0 min 2 min 0 W/m 40,6 km/h (6 Bft) 93,62 %
27.11.2017 17:26 7,3 C 6,7 C 5,6 C 95 % 15 lf 1007,9 hPa 0,0 l/m 0 min 2 min 0 W/m 42,8 km/h (6 Bft) 95,65 %
27.11.2017 17:28 7,3 C 6,7 C 5,6 C 95 % 15 lf 1007,9 hPa 0,0 l/m 0 min 2 min 0 W/m 33,8 km/h (5 Bft) 95,74 %
27.11.2017 17:30 7,3 C 6,7 C 5,6 C 95 % 15 lf 1007,9 hPa 0,0 l/m 0 min 2 min 0 W/m 45,1 km/h (6 Bft) 95,74 %
27.11.2017 17:32 7,3 C 6,7 C 5,6 C 95 % 15 lf 1007,9 hPa 0,0 l/m 0 min 2 min 0 W/m 40,6 km/h (6 Bft) 93,62 %
27.11.2017 17:34 7,3 C 6,7 C 5,6 C 95 % 15 lf 1007,9 hPa 0,0 l/m 0 min 2 min 0 W/m 49,6 km/h (6 Bft) 95,74 %
27.11.2017 17:36 7,3 C 6,7 C 5,6 C 95 % 15 lf 1007,9 hPa 0,0 l/m 0 min 2 min 0 W/m 42,8 km/h (6 Bft) 95,74 %
27.11.2017 17:38 7,4 C 6,7 C 5,6 C 95 % 15 lf 1007,9 hPa 0,0 l/m 0 min 2 min 0 W/m 42,8 km/h (6 Bft) 91,30 %
27.11.2017 17:40 7,4 C 6,7 C 5,6 C 95 % 15 lf 1008,0 hPa 0,0 l/m 0 min 2 min 0 W/m 38,3 km/h (5 Bft) 97,87 %
27.11.2017 17:42 7,4 C 6,7 C 5,6 C 95 % 15 lf 1007,9 hPa 0,0 l/m 0 min 2 min 0 W/m 36,0 km/h (5 Bft) 93,62 %
27.11.2017 17:44 7,4 C 6,7 C 5,6 C 95 % 15 lf 1008,0 hPa 0,0 l/m 0 min 2 min 0 W/m 38,3 km/h (5 Bft) 97,87 %
27.11.2017 17:46 7,4 C 6,7 C 5,6 C 95 % 15 lf 1007,9 hPa 0,0 l/m 0 min 2 min 0 W/m 42,8 km/h (6 Bft) 95,74 %
27.11.2017 17:48 7,4 C 6,7 C 5,6 C 95 % 15 lf 1007,9 hPa 0,0 l/m 0 min 2 min 0 W/m 42,8 km/h (6 Bft) 97,87 %
27.11.2017 17:50 7,4 C 6,7 C 5,6 C 95 % 15 lf 1007,8 hPa 0,0 l/m 0 min 2 min 0 W/m 36,0 km/h (5 Bft) 97,83 %
27.11.2017 17:52 7,4 C 6,7 C 5,6 C 95 % 15 lf 1007,8 hPa 0,0 l/m 0 min 2 min 0 W/m 31,5 km/h (5 Bft) 97,87 %
27.11.2017 17:54 7,4 C 6,7 C 5,6 C 95 % 15 lf 1007,9 hPa 0,0 l/m 0 min 2 min 0 W/m 27,0 km/h (4 Bft) 97,87 %
27.11.2017 17:56 7,4 C 6,7 C 5,6 C 95 % 15 lf 1007,9 hPa 0,0 l/m 0 min 2 min 0 W/m 38,3 km/h (5 Bft) 97,87 %
27.11.2017 17:58 7,4 C 6,7 C 5,6 C 95 % 15 lf 1007,8 hPa 0,0 l/m 0 min 2 min 0 W/m 29,3 km/h (5 Bft) 97,87 %
27.11.2017 18:00 7,4 C 6,7 C 5,6 C 95 % 15 lf 1007,8 hPa 0,0 l/m 0 min 2 min 0 W/m 38,3 km/h (5 Bft) 95,65 %
27.11.2017 18:02 7,4 C 6,7 C 5,6 C 95 % 15 lf 1007,7 hPa 0,0 l/m 0 min 2 min 0 W/m 27,0 km/h (4 Bft) 94,34 %
27.11.2017 18:04 7,4 C 6,7 C 5,6 C 95 % 15 lf 1007,8 hPa 0,0 l/m 0 min 2 min 0 W/m 33,8 km/h (5 Bft) 97,87 %
27.11.2017 18:06 7,4 C 6,7 C 5,6 C 95 % 15 lf 1007,8 hPa 0,0 l/m 0 min 2 min 0 W/m 47,3 km/h (6 Bft) 95,74 %
27.11.2017 18:10 7,4 C 6,7 C 5,6 C 95 % 15 lf 1007,8 hPa 0,0 l/m 0 min 4 min 0 W/m 49,6 km/h (6 Bft) 98,86 %
27.11.2017 18:12 7,4 C 6,7 C 5,6 C 95 % 15 lf 1007,6 hPa 0,0 l/m 0 min 2 min 0 W/m 40,6 km/h (6 Bft) 100,00 %
27.11.2017 18:14 7,4 C 6,7 C 5,6 C 95 % 15 lf 1007,6 hPa 0,0 l/m 0 min 2 min 0 W/m 29,3 km/h (5 Bft) 100,00 %
27.11.2017 18:16 7,4 C 6,7 C 5,6 C 95 % 15 lf 1007,7 hPa 0,0 l/m 0 min 2 min 0 W/m 24,8 km/h (4 Bft) 100,00 %
27.11.2017 18:18 7,4 C 6,7 C 5,6 C 95 % 15 lf 1007,7 hPa 0,0 l/m 0 min 2 min 0 W/m 38,3 km/h (5 Bft) 100,00 %
27.11.2017 18:20 7,4 C 6,7 C 5,6 C 95 % 15 lf 1007,6 hPa 0,0 l/m 0 min 2 min 0 W/m 24,8 km/h (4 Bft) 97,87 %
27.11.2017 18:22 7,4 C 6,7 C 5,6 C 95 % 15 lf 1007,7 hPa 0,0 l/m 0 min 2 min 0 W/m 29,3 km/h (5 Bft) 100,00 %
27.11.2017 18:24 7,4 C 6,7 C 5,6 C 95 % 15 lf 1007,6 hPa 0,0 l/m 0 min 2 min 0 W/m 31,5 km/h (5 Bft) 100,00 %
27.11.2017 18:26 7,4 C 6,7 C 5,6 C 95 % 15 lf 1007,6 hPa 0,0 l/m 0 min 2 min 0 W/m 40,6 km/h (6 Bft) 97,87 %
27.11.2017 18:28 7,4 C 6,7 C 5,6 C 95 % 15 lf 1007,7 hPa 0,0 l/m 0 min 2 min 0 W/m 40,6 km/h (6 Bft) 100,00 %
27.11.2017 18:30 7,4 C 6,7 C 5,6 C 95 % 15 lf 1007,5 hPa 0,0 l/m 0 min 2 min 0 W/m 36,0 km/h (5 Bft) 100,00 %
27.11.2017 18:32 7,4 C 6,7 C 5,6 C 95 % 15 lf 1007,5 hPa 0,0 l/m 0 min 2 min 0 W/m 31,5 km/h (5 Bft) 100,00 %
27.11.2017 18:34 7,4 C 6,7 C 5,6 C 95 % 15 lf 1007,7 hPa 0,0 l/m 0 min 2 min 0 W/m 33,8 km/h (5 Bft) 97,87 %
27.11.2017 18:36 7,4 C 6,7 C 5,6 C 95 % 15 lf 1007,8 hPa 0,0 l/m 0 min 2 min 0 W/m 38,3 km/h (5 Bft) 95,65 %
27.11.2017 18:38 7,4 C 6,7 C 5,6 C 95 % 15 lf 1007,6 hPa 0,0 l/m 0 min 2 min 0 W/m 27,0 km/h (4 Bft) 91,49 %
27.11.2017 18:40 7,4 C 6,7 C 5,6 C 95 % 15 lf 1007,6 hPa 0,0 l/m 0 min 2 min 0 W/m 31,5 km/h (5 Bft) 97,87 %
27.11.2017 18:42 7,4 C 6,7 C 5,6 C 95 % 15 lf 1007,5 hPa 0,0 l/m 0 min 2 min 0 W/m 33,8 km/h (5 Bft) 95,74 %
27.11.2017 18:44 7,4 C 6,7 C 5,6 C 95 % 15 lf 1007,5 hPa 0,0 l/m 0 min 0 min 0 W/m 36,0 km/h (5 Bft) 95,74 %
27.11.2017 18:46 7,4 C 6,7 C 5,6 C 95 % 15 lf 1007,5 hPa 0,0 l/m 0 min 2 min 0 W/m 29,3 km/h (5 Bft) 97,87 %
27.11.2017 18:48 7,4 C 6,7 C 5,6 C 95 % 15 lf 1007,5 hPa 0,0 l/m 0 min 2 min 0 W/m 31,5 km/h (5 Bft) 95,65 %
27.11.2017 18:50 7,5 C 6,7 C 5,6 C 95 % 15 lf 1007,5 hPa 0,0 l/m 0 min 2 min 0 W/m 27,0 km/h (4 Bft) 97,87 %
27.11.2017 18:52 7,5 C 6,7 C 6,1 C 95 % 15 lf 1007,4 hPa 0,0 l/m 0 min 2 min 0 W/m 36,0 km/h (5 Bft) 93,62 %
27.11.2017 18:54 7,5 C 6,7 C 5,6 C 95 % 15 lf 1007,4 hPa 0,0 l/m 0 min 2 min 0 W/m 29,3 km/h (5 Bft) 93,62 %
27.11.2017 18:56 7,5 C 6,7 C 5,6 C 95 % 15 lf 1007,5 hPa 0,0 l/m 0 min 0 min 0 W/m 29,3 km/h (5 Bft) 95,74 %
27.11.2017 18:58 7,5 C 6,7 C 5,6 C 96 % 15 lf 1007,3 hPa 0,0 l/m 0 min 2 min 0 W/m 24,8 km/h (4 Bft) 95,74 %
27.11.2017 19:00 7,5 C 7,2 C 6,1 C 96 % 15 lf 1007,4 hPa 0,0 l/m 0 min 2 min 0 W/m 38,3 km/h (5 Bft) 91,30 %
27.11.2017 19:02 7,5 C 7,2 C 6,1 C 96 % 15 lf 1007,5 hPa 0,0 l/m 0 min 2 min 0 W/m 29,3 km/h (5 Bft) 95,74 %
27.11.2017 19:04 7,6 C 7,2 C 6,1 C 96 % 15 lf 1007,3 hPa 0,0 l/m 0 min 2 min 0 W/m 22,5 km/h (4 Bft) 93,62 %
27.11.2017 19:06 7,5 C 7,2 C 6,1 C 96 % 15 lf 1007,3 hPa 0,0 l/m 0 min 2 min 0 W/m 29,3 km/h (5 Bft) 90,57 %
27.11.2017 19:10 7,6 C 7,2 C 6,1 C 96 % 15 lf 1007,2 hPa 0,0 l/m 0 min 4 min 0 W/m 31,5 km/h (5 Bft) 92,63 %
27.11.2017 19:12 7,6 C 7,2 C 6,1 C 96 % 15 lf 1007,2 hPa 0,0 l/m 0 min 2 min 0 W/m 29,3 km/h (5 Bft) 93,48 %
27.11.2017 19:14 7,6 C 7,2 C 6,1 C 96 % 15 lf 1007,2 hPa 0,0 l/m 0 min 2 min 0 W/m 33,8 km/h (5 Bft) 95,74 %
27.11.2017 19:16 7,6 C 7,2 C 6,1 C 96 % 15 lf 1007,2 hPa 0,0 l/m 0 min 2 min 0 W/m 33,8 km/h (5 Bft) 93,62 %
27.11.2017 19:18 7,6 C 7,2 C 6,1 C 96 % 15 lf 1007,1 hPa 0,0 l/m 0 min 2 min 0 W/m 38,3 km/h (5 Bft) 93,62 %
27.11.2017 19:20 7,6 C 7,2 C 6,1 C 96 % 15 lf 1007,1 hPa 0,0 l/m 0 min 0 min 0 W/m 24,8 km/h (4 Bft) 93,62 %
27.11.2017 19:22 7,6 C 7,2 C 6,1 C 96 % 15 lf 1007,1 hPa 0,0 l/m 0 min 2 min 0 W/m 40,6 km/h (6 Bft) 91,49 %
27.11.2017 19:24 7,6 C 7,2 C 6,1 C 96 % 15 lf 1007,1 hPa 0,0 l/m 0 min 2 min 0 W/m 42,8 km/h (6 Bft) 89,13 %
27.11.2017 19:26 7,6 C 7,2 C 6,1 C 96 % 14 lf 1007,1 hPa 0,0 l/m 0 min 2 min 0 W/m 33,8 km/h (5 Bft) 91,49 %
27.11.2017 19:28 7,6 C 7,2 C 5,6 C 96 % 14 lf 1007,1 hPa 0,0 l/m 0 min 2 min 0 W/m 31,5 km/h (5 Bft) 95,74 %
27.11.2017 19:30 7,6 C 7,2 C 5,6 C 95 % 14 lf 1007,1 hPa 0,0 l/m 0 min 2 min 0 W/m 36,0 km/h (5 Bft) 91,49 %
27.11.2017 19:32 7,6 C 7,2 C 5,6 C 95 % 13 lf 1007,1 hPa 0,0 l/m 0 min 2 min 0 W/m 27,0 km/h (4 Bft) 95,74 %
27.11.2017 19:34 7,6 C 7,2 C 5,6 C 95 % 13 lf 1007,1 hPa 0,0 l/m 0 min 2 min 0 W/m 42,8 km/h (6 Bft) 93,62 %
27.11.2017 19:36 7,6 C 7,2 C 5,6 C 95 % 12 lf 1007,1 hPa 0,0 l/m 0 min 2 min 0 W/m 33,8 km/h (5 Bft) 97,83 %
27.11.2017 19:38 7,6 C 7,2 C 5,6 C 96 % 12 lf 1007,1 hPa 0,0 l/m 0 min 2 min 0 W/m 36,0 km/h (5 Bft) 100,00 %
27.11.2017 19:40 7,6 C 7,2 C 5,6 C 95 % 10 lf 1007,1 hPa 0,0 l/m 0 min 2 min 0 W/m 40,6 km/h (6 Bft) 97,87 %
27.11.2017 19:42 7,6 C 7,2 C 5,6 C 95 % 8 lf 1007,2 hPa 0,0 l/m 0 min 2 min 0 W/m 36,0 km/h (5 Bft) 100,00 %
27.11.2017 19:44 7,6 C 7,2 C 5,6 C 95 % 7 lf 1007,1 hPa 0,0 l/m 0 min 2 min 0 W/m 31,5 km/h (5 Bft) 100,00 %
27.11.2017 19:46 7,6 C 7,2 C 5,6 C 95 % 5 lf 1007,1 hPa 0,0 l/m 0 min 2 min 0 W/m 33,8 km/h (5 Bft) 97,87 %
27.11.2017 19:48 7,7 C 7,2 C 5,6 C 95 % 4 lf 1007,0 hPa 0,0 l/m 0 min 2 min 0 W/m 33,8 km/h (5 Bft) 100,00 %
27.11.2017 19:50 7,6 C 7,2 C 5,6 C 95 % 4 lf 1007,1 hPa 0,0 l/m 0 min 2 min 0 W/m 33,8 km/h (5 Bft) 97,87 %
27.11.2017 19:52 7,7 C 7,2 C 5,6 C 95 % 3 lf 1007,0 hPa 0,0 l/m 0 min 0 min 0 W/m 36,0 km/h (5 Bft) 97,87 %
27.11.2017 19:54 7,6 C 7,2 C 5,6 C 95 % 2 lf 1007,0 hPa 0,0 l/m 0 min 2 min 0 W/m 36,0 km/h (5 Bft) 100,00 %
27.11.2017 19:56 7,7 C 7,2 C 5,6 C 95 % 1 lf 1007,0 hPa 0,0 l/m 0 min 2 min 0 W/m 33,8 km/h (5 Bft) 95,74 %
27.11.2017 19:58 7,6 C 7,2 C 5,6 C 95 % 1 lf 1007,0 hPa 0,0 l/m 0 min 2 min 0 W/m 33,8 km/h (5 Bft) 100,00 %
27.11.2017 20:00 7,7 C 7,2 C 5,6 C 95 % 2 lf 1007,0 hPa 0,0 l/m 0 min 0 min 0 W/m 31,5 km/h (5 Bft) 100,00 %
27.11.2017 20:02 7,7 C 7,2 C 5,6 C 95 % 4 lf 1006,9 hPa 0,0 l/m 0 min 2 min 0 W/m 29,3 km/h (5 Bft) 100,00 %
27.11.2017 20:04 7,7 C 7,2 C 5,6 C 95 % 7 lf 1007,0 hPa 0,0 l/m 0 min 2 min 0 W/m 45,1 km/h (6 Bft) 100,00 %
27.11.2017 20:06 7,7 C 7,2 C 5,6 C 95 % 9 lf 1006,9 hPa 0,0 l/m 0 min 2 min 0 W/m 29,3 km/h (5 Bft) 100,00 %
27.11.2017 20:10 7,6 C 6,7 C 5,6 C 95 % 9 lf 1006,9 hPa 0,0 l/m 0 min 4 min 0 W/m 36,0 km/h (5 Bft) 98,84 %
27.11.2017 20:12 7,6 C 6,7 C 5,6 C 95 % 7 lf 1006,9 hPa 0,0 l/m 0 min 2 min 0 W/m 40,6 km/h (6 Bft) 100,00 %
27.11.2017 20:14 7,5 C 6,7 C 5,6 C 95 % 4 lf 1006,9 hPa 0,0 l/m 0 min 2 min 0 W/m 27,0 km/h (4 Bft) 93,62 %
27.11.2017 20:16 7,5 C 6,7 C 5,6 C 94 % 4 lf 1006,9 hPa 0,0 l/m 0 min 2 min 0 W/m 33,8 km/h (5 Bft) 100,00 %
27.11.2017 20:18 7,5 C 6,7 C 5,6 C 94 % 3 lf 1006,9 hPa 0,0 l/m 0 min 2 min 0 W/m 38,3 km/h (5 Bft) 100,00 %
27.11.2017 20:20 7,5 C 7,2 C 5,6 C 94 % 3 lf 1006,8 hPa 0,0 l/m 0 min 2 min 0 W/m 29,3 km/h (5 Bft) 100,00 %
27.11.2017 20:22 7,5 C 7,2 C 5,6 C 94 % 3 lf 1006,8 hPa 0,0 l/m 0 min 0 min 0 W/m 31,5 km/h (5 Bft) 97,83 %
27.11.2017 20:24 7,6 C 7,2 C 5,6 C 94 % 2 lf 1006,8 hPa 0,0 l/m 0 min 0 min 0 W/m 31,5 km/h (5 Bft) 100,00 %
27.11.2017 20:26 7,6 C 7,2 C 5,6 C 94 % 2 lf 1006,8 hPa 0,0 l/m 0 min 0 min 0 W/m 27,0 km/h (4 Bft) 100,00 %
27.11.2017 20:28 7,6 C 7,2 C 5,6 C 94 % 1 lf 1006,8 hPa 0,0 l/m 0 min 0 min 0 W/m 27,0 km/h (4 Bft) 100,00 %
27.11.2017 20:30 7,6 C 7,2 C 5,6 C 94 % 0 lf 1006,8 hPa 0,0 l/m 0 min 2 min 0 W/m 36,0 km/h (5 Bft) 95,74 %
27.11.2017 20:32 7,6 C 7,2 C 5,6 C 94 % 0 lf 1006,7 hPa 0,0 l/m 0 min 2 min 0 W/m 24,8 km/h (4 Bft) 97,83 %
27.11.2017 20:34 7,6 C 7,2 C 5,6 C 94 % 0 lf 1006,6 hPa 0,0 l/m 0 min 0 min 0 W/m 36,0 km/h (5 Bft) 100,00 %
27.11.2017 20:36 7,6 C 7,2 C 5,6 C 94 % 0 lf 1006,7 hPa 0,0 l/m 0 min 2 min 0 W/m 40,6 km/h (6 Bft) 100,00 %
27.11.2017 20:38 7,6 C 7,2 C 5,6 C 94 % 0 lf 1006,5 hPa 0,0 l/m 0 min 2 min 0 W/m 27,0 km/h (4 Bft) 97,87 %
27.11.2017 20:40 7,6 C 7,2 C 5,6 C 94 % 0 lf 1006,6 hPa 0,0 l/m 0 min 0 min 0 W/m 27,0 km/h (4 Bft) 95,74 %
27.11.2017 20:42 7,6 C 7,2 C 5,6 C 94 % 0 lf 1006,5 hPa 0,0 l/m 0 min 0 min 0 W/m 29,3 km/h (5 Bft) 100,00 %
27.11.2017 20:44 7,6 C 7,2 C 5,6 C 94 % 0 lf 1006,5 hPa 0,0 l/m 0 min 2 min 0 W/m 33,8 km/h (5 Bft) 100,00 %
27.11.2017 20:46 7,6 C 7,2 C 5,6 C 94 % 0 lf 1006,5 hPa 0,0 l/m 0 min 2 min 0 W/m 36,0 km/h (5 Bft) 100,00 %
27.11.2017 20:48 7,6 C 7,8 C 5,6 C 94 % 0 lf 1006,5 hPa 0,0 l/m 0 min 2 min 0 W/m 38,3 km/h (5 Bft) 97,87 %
27.11.2017 20:50 7,7 C 7,8 C 5,6 C 94 % 0 lf 1006,4 hPa 0,0 l/m 0 min 2 min 0 W/m 33,8 km/h (5 Bft) 95,74 %
27.11.2017 20:52 7,7 C 7,8 C 5,6 C 94 % 0 lf 1006,4 hPa 0,0 l/m 0 min 0 min 0 W/m 24,8 km/h (4 Bft) 97,87 %
27.11.2017 20:54 7,7 C 7,8 C 5,6 C 94 % 0 lf 1006,4 hPa 0,0 l/m 0 min 0 min 0 W/m 33,8 km/h (5 Bft) 97,87 %
27.11.2017 20:56 7,6 C 7,8 C 5,6 C 94 % 0 lf 1006,4 hPa 0,0 l/m 0 min 0 min 0 W/m 33,8 km/h (5 Bft) 91,30 %
27.11.2017 20:58 7,6 C 7,8 C 5,6 C 94 % 0 lf 1006,3 hPa 0,0 l/m 0 min 2 min 0 W/m 36,0 km/h (5 Bft) 95,74 %
27.11.2017 21:00 7,6 C 7,2 C 5,6 C 94 % 0 lf 1006,3 hPa 0,0 l/m 0 min 2 min 0 W/m 31,5 km/h (5 Bft) 95,74 %
27.11.2017 21:02 7,6 C 7,2 C 5,6 C 94 % 0 lf 1006,3 hPa 0,0 l/m 0 min 0 min 0 W/m 27,0 km/h (4 Bft) 95,74 %
27.11.2017 21:04 7,6 C 7,2 C 5,6 C 94 % 0 lf 1006,4 hPa 0,0 l/m 0 min 0 min 0 W/m 45,1 km/h (6 Bft) 93,62 %
27.11.2017 21:06 7,6 C 7,2 C 5,6 C 94 % 0 lf 1006,4 hPa 0,0 l/m 0 min 2 min 0 W/m 36,0 km/h (5 Bft) 91,49 %
27.11.2017 21:10 7,6 C 7,2 C 5,6 C 94 % 0 lf 1006,4 hPa 0,0 l/m 0 min 0 min 0 W/m 45,1 km/h (6 Bft) 95,70 %
27.11.2017 21:12 7,6 C 7,2 C 5,6 C 94 % 0 lf 1006,3 hPa 0,0 l/m 0 min 0 min 0 W/m 24,8 km/h (4 Bft) 93,62 %
27.11.2017 21:14 7,6 C 7,2 C 5,6 C 94 % 0 lf 1006,2 hPa 0,0 l/m 0 min 0 min 0 W/m 31,5 km/h (5 Bft) 95,74 %
27.11.2017 21:16 7,6 C 7,2 C 5,6 C 94 % 0 lf 1006,2 hPa 0,0 l/m 0 min 0 min 0 W/m 24,8 km/h (4 Bft) 93,62 %
27.11.2017 21:18 7,6 C 7,2 C 5,6 C 94 % 0 lf 1006,3 hPa 0,0 l/m 0 min 0 min 0 W/m 31,5 km/h (5 Bft) 93,62 %
27.11.2017 21:20 7,6 C 7,2 C 5,6 C 94 % 0 lf 1006,2 hPa 0,0 l/m 0 min 0 min 0 W/m 27,0 km/h (4 Bft) 95,65 %
27.11.2017 21:22 7,6 C 7,2 C 5,6 C 94 % 0 lf 1006,2 hPa 0,0 l/m 0 min 0 min 0 W/m 29,3 km/h (5 Bft) 95,74 %
27.11.2017 21:24 7,6 C 7,2 C 5,6 C 94 % 0 lf 1006,3 hPa 0,0 l/m 0 min 0 min 0 W/m 29,3 km/h (5 Bft) 97,87 %
27.11.2017 21:26 7,6 C 7,2 C 5,6 C 94 % 0 lf 1006,2 hPa 0,0 l/m 0 min 0 min 0 W/m 33,8 km/h (5 Bft) 97,87 %
27.11.2017 21:28 7,6 C 7,2 C 5,6 C 94 % 0 lf 1006,2 hPa 0,0 l/m 0 min 0 min 0 W/m 31,5 km/h (5 Bft) 97,87 %
27.11.2017 21:30 7,6 C 7,8 C 5,6 C 94 % 0 lf 1006,2 hPa 0,0 l/m 0 min 0 min 0 W/m 29,3 km/h (5 Bft) 95,74 %
27.11.2017 21:32 7,6 C 7,8 C 5,6 C 94 % 0 lf 1006,2 hPa 0,0 l/m 0 min 0 min 0 W/m 27,0 km/h (4 Bft) 93,48 %
27.11.2017 21:34 7,6 C 7,2 C 5,6 C 94 % 0 lf 1006,2 hPa 0,0 l/m 0 min 0 min 0 W/m 22,5 km/h (4 Bft) 93,62 %
27.11.2017 21:36 7,6 C 7,2 C 5,6 C 94 % 1 lf 1006,2 hPa 0,0 l/m 0 min 0 min 0 W/m 27,0 km/h (4 Bft) 89,36 %
27.11.2017 21:38 7,6 C 7,2 C 5,6 C 94 % 2 lf 1006,2 hPa 0,0 l/m 0 min 2 min 0 W/m 22,5 km/h (4 Bft) 91,49 %
27.11.2017 21:40 7,6 C 7,2 C 5,6 C 94 % 2 lf 1006,2 hPa 0,0 l/m 0 min 0 min 0 W/m 33,8 km/h (5 Bft) 93,62 %
27.11.2017 21:42 7,6 C 7,2 C 5,6 C 94 % 3 lf 1006,3 hPa 0,0 l/m 0 min 2 min 0 W/m 27,0 km/h (4 Bft) 93,48 %
27.11.2017 21:44 7,6 C 7,2 C 5,6 C 94 % 3 lf 1006,2 hPa 0,0 l/m 0 min 0 min 0 W/m 31,5 km/h (5 Bft) 91,49 %
27.11.2017 21:46 7,6 C 7,2 C 5,6 C 94 % 3 lf 1006,2 hPa 0,0 l/m 0 min 2 min 0 W/m 27,0 km/h (4 Bft) 93,62 %
27.11.2017 21:48 7,6 C 7,2 C 5,6 C 94 % 4 lf 1006,2 hPa 0,0 l/m 0 min 0 min 0 W/m 29,3 km/h (5 Bft) 87,23 %
27.11.2017 21:50 7,7 C 7,2 C 5,6 C 94 % 4 lf 1006,2 hPa 0,0 l/m 0 min 0 min 0 W/m 31,5 km/h (5 Bft) 93,62 %
27.11.2017 21:52 7,6 C 7,2 C 5,6 C 94 % 12 lf 1006,2 hPa 0,0 l/m 0 min 2 min 0 W/m 29,3 km/h (5 Bft) 93,62 %
27.11.2017 21:54 7,7 C 7,2 C 5,6 C 94 % 15 lf 1006,2 hPa 0,0 l/m 0 min 2 min 0 W/m 22,5 km/h (4 Bft) 95,65 %
27.11.2017 21:56 7,6 C 7,2 C 5,6 C 94 % 15 lf 1006,2 hPa 0,2 l/m 0 min 2 min 0 W/m 31,5 km/h (5 Bft) 87,23 %
27.11.2017 21:58 7,6 C 6,7 C 5,6 C 94 % 15 lf 1005,9 hPa 0,0 l/m 0 min 2 min 0 W/m 27,0 km/h (4 Bft) 89,36 %
27.11.2017 22:00 7,6 C 6,7 C 5,6 C 94 % 15 lf 1005,8 hPa 0,0 l/m 0 min 2 min 0 W/m 15,8 km/h (3 Bft) 91,49 %
27.11.2017 22:02 7,6 C 6,7 C 5,6 C 94 % 15 lf 1005,8 hPa 0,0 l/m 0 min 2 min 0 W/m 31,5 km/h (5 Bft) 94,00 %
27.11.2017 22:04 7,6 C 6,7 C 5,6 C 94 % 15 lf 1005,9 hPa 0,0 l/m 0 min 2 min 0 W/m 27,0 km/h (4 Bft) 91,49 %
27.11.2017 22:06 7,6 C 6,7 C 5,6 C 94 % 15 lf 1006,2 hPa 0,0 l/m 0 min 2 min 0 W/m 24,8 km/h (4 Bft) 95,65 %
27.11.2017 22:10 7,4 C 5,6 C 4,4 C 94 % 15 lf 1006,6 hPa 0,4 l/m 0 min 4 min 0 W/m 42,8 km/h (6 Bft) 91,49 %
27.11.2017 22:12 7,1 C 5,0 C 4,4 C 93 % 15 lf 1006,7 hPa 0,6 l/m 0 min 2 min 0 W/m 36,0 km/h (5 Bft) 89,36 %
27.11.2017 22:14 6,8 C 5,0 C 3,9 C 93 % 15 lf 1006,6 hPa 0,2 l/m 0 min 2 min 0 W/m 22,5 km/h (4 Bft) 93,62 %
27.11.2017 22:16 6,6 C 5,0 C 3,9 C 93 % 15 lf 1006,5 hPa 0,0 l/m 0 min 2 min 0 W/m 18,0 km/h (3 Bft) 95,74 %
27.11.2017 22:18 6,4 C 5,0 C 3,9 C 92 % 15 lf 1006,6 hPa 0,2 l/m 0 min 2 min 0 W/m 18,0 km/h (3 Bft) 100,00 %
27.11.2017 22:20 6,3 C 5,0 C 3,9 C 93 % 15 lf 1006,6 hPa 0,2 l/m 0 min 2 min 0 W/m 15,8 km/h (3 Bft) 97,87 %
27.11.2017 22:22 6,2 C 5,0 C 3,9 C 93 % 15 lf 1006,6 hPa 0,0 l/m 0 min 2 min 0 W/m 24,8 km/h (4 Bft) 97,87 %
27.11.2017 22:24 6,2 C 5,0 C 3,9 C 93 % 15 lf 1006,5 hPa 0,0 l/m 0 min 2 min 0 W/m 15,8 km/h (3 Bft) 100,00 %
27.11.2017 22:26 6,1 C 5,0 C 3,9 C 93 % 15 lf 1006,5 hPa 0,0 l/m 0 min 2 min 0 W/m 15,8 km/h (3 Bft) 95,74 %
27.11.2017 22:28 6,0 C 5,0 C 3,9 C 93 % 15 lf 1006,4 hPa 0,2 l/m 0 min 2 min 0 W/m 20,3 km/h (4 Bft) 95,74 %
27.11.2017 22:30 5,9 C 5,0 C 3,9 C 93 % 15 lf 1006,4 hPa 0,0 l/m 0 min 2 min 0 W/m 18,0 km/h (3 Bft) 97,83 %
27.11.2017 22:32 5,9 C 5,0 C 3,9 C 93 % 15 lf 1006,3 hPa 0,0 l/m 0 min 2 min 0 W/m 11,3 km/h (2 Bft) 100,00 %
27.11.2017 22:34 5,9 C 5,0 C 3,9 C 93 % 15 lf 1006,5 hPa 0,0 l/m 0 min 2 min 0 W/m 22,5 km/h (4 Bft) 97,87 %
27.11.2017 22:36 5,8 C 5,0 C 3,9 C 93 % 15 lf 1006,4 hPa 0,2 l/m 0 min 2 min 0 W/m 22,5 km/h (4 Bft) 97,87 %
27.11.2017 22:38 5,8 C 5,0 C 4,4 C 94 % 15 lf 1006,3 hPa 0,0 l/m 0 min 2 min 0 W/m 22,5 km/h (4 Bft) 97,87 %
27.11.2017 22:40 5,8 C 5,0 C 4,4 C 94 % 15 lf 1006,4 hPa 0,0 l/m 0 min 2 min 0 W/m 22,5 km/h (4 Bft) 100,00 %
27.11.2017 22:42 5,8 C 5,0 C 4,4 C 94 % 15 lf 1006,3 hPa 0,0 l/m 0 min 2 min 0 W/m 33,8 km/h (5 Bft) 97,87 %
27.11.2017 22:44 5,8 C 5,0 C 4,4 C 94 % 15 lf 1006,3 hPa 0,0 l/m 0 min 2 min 0 W/m 18,0 km/h (3 Bft) 97,87 %
27.11.2017 22:46 5,7 C 5,0 C 4,4 C 94 % 15 lf 1006,4 hPa 0,0 l/m 0 min 2 min 0 W/m 22,5 km/h (4 Bft) 100,00 %
27.11.2017 22:48 5,7 C 5,0 C 4,4 C 94 % 15 lf 1006,4 hPa 0,0 l/m 0 min 2 min 0 W/m 22,5 km/h (4 Bft) 97,87 %
27.11.2017 22:50 5,7 C 5,0 C 4,4 C 94 % 15 lf 1006,4 hPa 0,0 l/m 0 min 2 min 0 W/m 20,3 km/h (4 Bft) 97,87 %
27.11.2017 22:52 5,7 C 5,0 C 4,4 C 94 % 15 lf 1006,4 hPa 0,0 l/m 0 min 2 min 0 W/m 15,8 km/h (3 Bft) 97,83 %
27.11.2017 22:54 5,7 C 5,0 C 4,4 C 94 % 15 lf 1006,4 hPa 0,2 l/m 0 min 2 min 0 W/m 24,8 km/h (4 Bft) 97,87 %
27.11.2017 22:56 5,7 C 5,0 C 4,4 C 95 % 15 lf 1006,3 hPa 0,0 l/m 0 min 2 min 0 W/m 15,8 km/h (3 Bft) 95,74 %
27.11.2017 22:58 5,7 C 5,0 C 4,4 C 95 % 15 lf 1006,3 hPa 0,0 l/m 0 min 2 min 0 W/m 15,8 km/h (3 Bft) 97,87 %
27.11.2017 23:00 5,7 C 5,0 C 4,4 C 95 % 15 lf 1006,4 hPa 0,0 l/m 0 min 2 min 0 W/m 22,5 km/h (4 Bft) 97,87 %
27.11.2017 23:02 5,7 C 5,0 C 4,4 C 95 % 15 lf 1006,4 hPa 0,0 l/m 0 min 0 min 0 W/m 20,3 km/h (4 Bft) 97,87 %
27.11.2017 23:04 5,7 C 5,0 C 4,4 C 95 % 15 lf 1006,4 hPa 0,0 l/m 0 min 0 min 0 W/m 29,3 km/h (5 Bft) 95,65 %
27.11.2017 23:06 5,7 C 5,0 C 4,4 C 95 % 15 lf 1006,5 hPa 0,0 l/m 0 min 2 min 0 W/m 20,3 km/h (4 Bft) 97,87 %
27.11.2017 23:10 5,7 C 5,0 C 4,4 C 95 % 15 lf 1006,3 hPa 0,0 l/m 0 min 4 min 0 W/m 22,5 km/h (4 Bft) 96,34 %
27.11.2017 23:12 5,7 C 5,0 C 4,4 C 95 % 15 lf 1006,3 hPa 0,0 l/m 0 min 2 min 0 W/m 18,0 km/h (3 Bft) 98,31 %
27.11.2017 23:14 5,7 C 5,0 C 4,4 C 95 % 15 lf 1006,4 hPa 0,0 l/m 0 min 2 min 0 W/m 18,0 km/h (3 Bft) 97,87 %
27.11.2017 23:16 5,7 C 5,0 C 4,4 C 95 % 15 lf 1006,3 hPa 0,0 l/m 0 min 2 min 0 W/m 27,0 km/h (4 Bft) 97,83 %
27.11.2017 23:18 5,7 C 5,0 C 4,4 C 95 % 15 lf 1006,3 hPa 0,2 l/m 0 min 2 min 0 W/m 22,5 km/h (4 Bft) 100,00 %
27.11.2017 23:20 5,6 C 5,0 C 4,4 C 95 % 15 lf 1006,4 hPa 0,0 l/m 0 min 2 min 0 W/m 22,5 km/h (4 Bft) 100,00 %
27.11.2017 23:22 5,6 C 5,0 C 4,4 C 95 % 15 lf 1006,4 hPa 0,0 l/m 0 min 2 min 0 W/m 22,5 km/h (4 Bft) 97,87 %
27.11.2017 23:24 5,6 C 5,0 C 4,4 C 95 % 15 lf 1006,4 hPa 0,0 l/m 0 min 2 min 0 W/m 22,5 km/h (4 Bft) 97,87 %
27.11.2017 23:26 5,6 C 5,0 C 3,9 C 95 % 15 lf 1006,4 hPa 0,0 l/m 0 min 2 min 0 W/m 20,3 km/h (4 Bft) 100,00 %
27.11.2017 23:28 5,6 C 5,0 C 3,9 C 96 % 15 lf 1006,5 hPa 0,0 l/m 0 min 2 min 0 W/m 24,8 km/h (4 Bft) 100,00 %
27.11.2017 23:30 5,6 C 5,0 C 3,9 C 96 % 15 lf 1006,5 hPa 0,0 l/m 0 min 2 min 0 W/m 24,8 km/h (4 Bft) 97,87 %
27.11.2017 23:32 5,6 C 5,0 C 3,9 C 96 % 15 lf 1006,4 hPa 0,0 l/m 0 min 2 min 0 W/m 24,8 km/h (4 Bft) 100,00 %
27.11.2017 23:34 5,6 C 5,0 C 3,9 C 96 % 15 lf 1006,4 hPa 0,0 l/m 0 min 2 min 0 W/m 29,3 km/h (5 Bft) 100,00 %
27.11.2017 23:36 5,5 C 5,0 C 3,9 C 95 % 15 lf 1006,5 hPa 0,0 l/m 0 min 2 min 0 W/m 24,8 km/h (4 Bft) 100,00 %
27.11.2017 23:38 5,5 C 5,0 C 3,9 C 96 % 15 lf 1006,4 hPa 0,0 l/m 0 min 2 min 0 W/m 33,8 km/h (5 Bft) 97,14 %
27.11.2017 23:40 5,4 C 5,0 C 3,9 C 96 % 15 lf 1006,4 hPa 0,0 l/m 0 min 2 min 0 W/m 29,3 km/h (5 Bft) 100,00 %
27.11.2017 23:42 5,4 C 5,0 C 3,9 C 96 % 15 lf 1006,5 hPa 0,0 l/m 0 min 2 min 0 W/m 24,8 km/h (4 Bft) 100,00 %
27.11.2017 23:44 5,4 C 5,0 C 3,9 C 96 % 15 lf 1006,4 hPa 0,2 l/m 0 min 2 min 0 W/m 22,5 km/h (4 Bft) 100,00 %
27.11.2017 23:46 5,4 C 5,0 C 3,9 C 96 % 15 lf 1006,4 hPa 0,0 l/m 0 min 2 min 0 W/m 24,8 km/h (4 Bft) 100,00 %
27.11.2017 23:48 5,4 C 5,0 C 3,9 C 96 % 15 lf 1006,4 hPa 0,0 l/m 0 min 2 min 0 W/m 22,5 km/h (4 Bft) 100,00 %
27.11.2017 23:50 5,4 C 5,0 C 3,9 C 96 % 15 lf 1006,4 hPa 0,0 l/m 0 min 2 min 0 W/m 15,8 km/h (3 Bft) 100,00 %
27.11.2017 23:52 5,4 C 5,0 C 3,9 C 96 % 15 lf 1006,4 hPa 0,0 l/m 0 min 2 min 0 W/m 24,8 km/h (4 Bft) 95,74 %
27.11.2017 23:54 5,3 C 5,0 C 3,9 C 96 % 15 lf 1006,3 hPa 0,0 l/m 0 min 2 min 0 W/m 20,3 km/h (4 Bft) 93,62 %
27.11.2017 23:56 5,3 C 5,0 C 3,9 C 96 % 15 lf 1006,3 hPa 0,0 l/m 0 min 2 min 0 W/m 15,8 km/h (3 Bft) 100,00 %
27.11.2017 23:58 5,3 C 5,0 C 3,9 C 96 % 15 lf 1006,4 hPa 0,0 l/m 0 min 0 min 0 W/m 11,3 km/h (2 Bft) 100,00 %
_ Min-Zeit 05:04 00:02 00:00 07:28 01:56 22:00 - - - - 00:22 11:10
Minimum _ 3,4 C 2,8 C 1,7 C 89 % 0 lf 1005,8 hPa - - - - 9,0 km/h (2 Bft) 86,96 %
_ Max-Zeit 19:48 20:48 18:52 18:58 00:00 00:00 22:12 00:00 14:24 12:12 12:56 00:04
Maximum _ 7,7 C 7,8 C 6,1 C 96 % 15 lf 1022,2 hPa 0,6 l/m 0 min 5 min 63 W/m 69,8 km/h
W-SW (8 Bft)
100,00 %
Durchschnitt _ 5,7 C 5,2 C 4,0 C 93 % 10 lf 1013,4 hPa #8,8 l/m #0 min. #15:57 h 29 W/m 31,8 km/h (5 Bft) 96,39 %
© 2017 W. Hausmann